Time,TemperatureF,DewpointF,PressureIn,WindDirection,WindDirectionDegrees,WindSpeedMPH,WindSpeedGustMPH,Humidity,HourlyPrecipIn,Conditions,Clouds,dailyrainin,SolarRadiationWatts/m^2,SoftwareType,DateUTC
2013-11-27 00:01:00,13.7,6.1,30.50,NNE,13,0.0,0.0,71,0.00,,,0.00,0,WeatherCatV1.23B16,2013-11-27 06:01:00,
2013-11-27 00:02:00,13.7,6.1,30.50,NNE,13,0.0,0.0,71,0.00,,,0.00,0,WeatherCatV1.23B16,2013-11-27 06:02:00,
2013-11-27 00:03:00,13.7,6.1,30.50,NNE,13,0.0,0.0,71,0.00,,,0.00,0,WeatherCatV1.23B16,2013-11-27 06:03:00,
2013-11-27 00:04:00,13.6,6.0,30.50,NNE,13,0.0,0.0,71,0.00,,,0.00,0,WeatherCatV1.23B16,2013-11-27 06:04:00,
2013-11-27 00:06:00,13.6,6.0,30.50,NNE,13,0.0,0.0,71,0.00,,,0.00,0,WeatherCatV1.23B16,2013-11-27 06:06:00,
2013-11-27 00:07:00,13.6,6.0,30.50,NNE,13,0.0,0.0,71,0.00,,,0.00,0,WeatherCatV1.23B16,2013-11-27 06:07:00,
2013-11-27 00:08:00,13.7,6.1,30.50,NNE,13,0.0,0.0,71,0.00,,,0.00,0,WeatherCatV1.23B16,2013-11-27 06:08:00,
2013-11-27 00:09:00,13.7,6.1,30.50,NNE,13,0.0,0.0,71,0.00,,,0.00,0,WeatherCatV1.23B16,2013-11-27 06:09:00,
2013-11-27 00:10:00,13.7,6.1,30.50,NNE,13,0.0,0.0,71,0.00,,,0.00,0,WeatherCatV1.23B16,2013-11-27 06:10:00,
2013-11-27 00:11:00,13.8,6.2,30.50,NNE,13,0.0,0.0,71,0.00,,,0.00,0,WeatherCatV1.23B16,2013-11-27 06:11:00,
2013-11-27 00:12:00,13.8,6.2,30.50,NNE,13,0.0,0.0,71,0.00,,,0.00,0,WeatherCatV1.23B16,2013-11-27 06:12:00,
2013-11-27 00:13:00,13.8,6.2,30.51,NNE,13,0.0,0.0,71,0.00,,,0.00,0,WeatherCatV1.23B16,2013-11-27 06:13:00,
2013-11-27 00:14:00,13.7,6.1,30.50,NNE,13,0.0,0.0,71,0.00,,,0.00,0,WeatherCatV1.23B16,2013-11-27 06:14:00,
2013-11-27 00:15:00,13.7,6.1,30.50,NNE,13,0.0,0.0,71,0.00,,,0.00,0,WeatherCatV1.23B16,2013-11-27 06:15:00,
2013-11-27 00:17:00,13.7,6.1,30.50,NNE,13,0.0,0.0,71,0.00,,,0.00,0,WeatherCatV1.23B16,2013-11-27 06:17:00,
2013-11-27 00:18:00,13.7,6.1,30.50,NNE,13,0.0,0.0,71,0.00,,,0.00,0,WeatherCatV1.23B16,2013-11-27 06:18:00,
2013-11-27 00:19:00,13.7,6.1,30.50,NNE,13,0.0,0.0,71,0.00,,,0.00,0,WeatherCatV1.23B16,2013-11-27 06:19:00,
2013-11-27 00:20:00,13.7,6.1,30.50,NNE,13,0.0,0.0,71,0.00,,,0.00,0,WeatherCatV1.23B16,2013-11-27 06:20:00,
2013-11-27 00:22:00,13.7,6.1,30.50,NNE,13,0.0,0.0,71,0.00,,,0.00,0,WeatherCatV1.23B16,2013-11-27 06:22:00,
2013-11-27 00:24:00,13.5,5.9,30.50,NNE,13,0.0,0.0,71,0.00,,,0.00,0,WeatherCatV1.23B16,2013-11-27 06:24:00,
2013-11-27 00:25:00,13.5,5.9,30.50,NNE,13,0.0,0.0,71,0.00,,,0.00,0,WeatherCatV1.23B16,2013-11-27 06:25:00,
2013-11-27 00:27:00,13.5,5.9,30.51,NNE,13,0.0,0.0,71,0.00,,,0.00,0,WeatherCatV1.23B16,2013-11-27 06:27:00,
2013-11-27 00:29:00,13.4,5.8,30.50,NNE,13,0.0,0.0,71,0.00,,,0.00,0,WeatherCatV1.23B16,2013-11-27 06:29:00,
2013-11-27 00:30:00,13.4,5.8,30.50,NNE,13,0.0,0.0,71,0.00,,,0.00,0,WeatherCatV1.23B16,2013-11-27 06:30:00,
2013-11-27 00:31:00,13.4,5.8,30.50,NNE,13,0.0,0.0,71,0.00,,,0.00,0,WeatherCatV1.23B16,2013-11-27 06:31:00,
2013-11-27 00:32:00,13.3,5.7,30.50,NNE,13,0.0,0.0,71,0.00,,,0.00,0,WeatherCatV1.23B16,2013-11-27 06:32:00,
2013-11-27 00:33:00,13.3,5.7,30.50,NNE,13,0.0,0.0,71,0.00,,,0.00,0,WeatherCatV1.23B16,2013-11-27 06:33:00,
2013-11-27 00:35:00,13.2,5.6,30.50,NNE,13,0.0,0.0,71,0.00,,,0.00,0,WeatherCatV1.23B16,2013-11-27 06:35:00,
2013-11-27 00:36:00,13.2,5.6,30.50,NNE,13,0.0,0.0,71,0.00,,,0.00,0,WeatherCatV1.23B16,2013-11-27 06:36:00,
2013-11-27 00:37:00,13.2,5.6,30.50,NNE,13,0.0,0.0,71,0.00,,,0.00,0,WeatherCatV1.23B16,2013-11-27 06:37:00,
2013-11-27 00:39:00,13.1,5.5,30.50,NNE,13,0.0,0.0,71,0.00,,,0.00,0,WeatherCatV1.23B16,2013-11-27 06:39:00,
2013-11-27 00:40:00,13.1,5.5,30.50,NNE,13,0.0,0.0,71,0.00,,,0.00,0,WeatherCatV1.23B16,2013-11-27 06:40:00,
2013-11-27 00:41:00,13.1,5.5,30.50,NNE,13,0.0,0.0,71,0.00,,,0.00,0,WeatherCatV1.23B16,2013-11-27 06:41:00,
2013-11-27 00:42:00,13.1,5.5,30.50,NNE,13,0.0,0.0,71,0.00,,,0.00,0,WeatherCatV1.23B16,2013-11-27 06:42:00,
2013-11-27 00:44:00,13.0,5.4,30.50,NNE,13,0.0,0.0,71,0.00,,,0.00,0,WeatherCatV1.23B16,2013-11-27 06:44:00,
2013-11-27 00:45:00,13.0,5.4,30.50,NNE,13,0.0,0.0,71,0.00,,,0.00,0,WeatherCatV1.23B16,2013-11-27 06:45:00,
2013-11-27 00:46:00,12.9,5.3,30.50,NNE,13,0.0,0.0,71,0.00,,,0.00,0,WeatherCatV1.23B16,2013-11-27 06:46:00,
2013-11-27 00:47:00,12.9,5.3,30.50,NNE,13,0.0,0.0,71,0.00,,,0.00,0,WeatherCatV1.23B16,2013-11-27 06:47:00,
2013-11-27 00:48:00,12.8,5.2,30.50,NNE,13,0.0,0.0,71,0.00,,,0.00,0,WeatherCatV1.23B16,2013-11-27 06:48:00,
2013-11-27 00:49:00,12.8,5.5,30.50,NNE,13,0.0,0.0,72,0.00,,,0.00,0,WeatherCatV1.23B16,2013-11-27 06:49:00,
2013-11-27 00:50:00,12.8,5.2,30.50,NNE,13,0.0,0.0,71,0.00,,,0.00,0,WeatherCatV1.23B16,2013-11-27 06:50:00,
2013-11-27 00:51:00,12.8,5.2,30.50,NNE,13,0.0,0.0,71,0.00,,,0.00,0,WeatherCatV1.23B16,2013-11-27 06:51:00,
2013-11-27 00:52:00,12.7,5.4,30.50,NNE,13,0.0,0.0,72,0.00,,,0.00,0,WeatherCatV1.23B16,2013-11-27 06:52:00,
2013-11-27 00:53:00,12.7,5.4,30.50,NNE,13,0.0,0.0,72,0.00,,,0.00,0,WeatherCatV1.23B16,2013-11-27 06:53:00,
2013-11-27 00:54:00,12.7,5.4,30.50,NNE,13,0.0,0.0,72,0.00,,,0.00,0,WeatherCatV1.23B16,2013-11-27 06:54:00,
2013-11-27 00:55:00,12.7,5.4,30.50,NNE,13,0.0,0.0,72,0.00,,,0.00,0,WeatherCatV1.23B16,2013-11-27 06:55:00,
2013-11-27 00:56:00,12.7,5.4,30.50,NNE,13,0.0,0.0,72,0.00,,,0.00,0,WeatherCatV1.23B16,2013-11-27 06:56:00,
2013-11-27 00:57:00,12.7,5.4,30.50,NNE,13,0.0,0.0,72,0.00,,,0.00,0,WeatherCatV1.23B16,2013-11-27 06:57:00,
2013-11-27 00:58:00,12.7,5.4,30.50,NNE,13,0.0,0.0,72,0.00,,,0.00,0,WeatherCatV1.23B16,2013-11-27 06:58:00,
2013-11-27 00:59:00,12.5,5.2,30.50,NNE,13,0.0,0.0,72,0.00,,,0.00,0,WeatherCatV1.23B16,2013-11-27 06:59:00,
2013-11-27 01:01:00,12.5,5.2,30.50,NNE,13,0.0,0.0,72,0.00,,,0.00,0,WeatherCatV1.23B16,2013-11-27 07:01:00,
2013-11-27 01:03:00,12.4,5.1,30.50,NNE,13,0.0,0.0,72,0.00,,,0.00,0,WeatherCatV1.23B16,2013-11-27 07:03:00,
2013-11-27 01:05:00,12.4,5.1,30.50,NNE,13,0.0,0.0,72,0.00,,,0.00,0,WeatherCatV1.23B16,2013-11-27 07:05:00,
2013-11-27 01:06:00,12.3,5.0,30.50,NNE,13,0.0,0.0,72,0.00,,,0.00,0,WeatherCatV1.23B16,2013-11-27 07:06:00,
2013-11-27 01:08:00,12.3,5.3,30.51,NNE,13,0.0,0.0,73,0.00,,,0.00,0,WeatherCatV1.23B16,2013-11-27 07:08:00,
2013-11-27 01:10:00,12.2,4.9,30.51,NNE,13,0.0,0.0,72,0.00,,,0.00,0,WeatherCatV1.23B16,2013-11-27 07:10:00,
2013-11-27 01:11:00,12.1,5.1,30.50,NNE,13,0.0,0.0,73,0.00,,,0.00,0,WeatherCatV1.23B16,2013-11-27 07:11:00,
2013-11-27 01:12:00,12.1,5.1,30.50,NNE,13,0.0,0.0,73,0.00,,,0.00,0,WeatherCatV1.23B16,2013-11-27 07:12:00,
2013-11-27 01:13:00,12.1,5.1,30.50,NNE,13,0.0,0.0,73,0.00,,,0.00,0,WeatherCatV1.23B16,2013-11-27 07:13:00,
2013-11-27 01:15:00,12.0,5.0,30.50,NNE,13,0.0,0.0,73,0.00,,,0.00,0,WeatherCatV1.23B16,2013-11-27 07:15:00,
2013-11-27 01:17:00,12.0,5.0,30.50,NNE,13,0.0,0.0,73,0.00,,,0.00,0,WeatherCatV1.23B16,2013-11-27 07:17:00,
2013-11-27 01:18:00,12.0,5.3,30.50,NNE,13,0.0,0.0,74,0.00,,,0.00,0,WeatherCatV1.23B16,2013-11-27 07:18:00,
2013-11-27 01:21:00,11.9,5.2,30.50,NNE,13,0.0,0.0,74,0.00,,,0.00,0,WeatherCatV1.23B16,2013-11-27 07:21:00,
2013-11-27 01:22:00,11.9,5.2,30.50,NNE,13,0.0,0.0,74,0.00,,,0.00,0,WeatherCatV1.23B16,2013-11-27 07:22:00,
2013-11-27 01:23:00,11.9,5.2,30.50,NNE,13,0.0,0.0,74,0.00,,,0.00,0,WeatherCatV1.23B16,2013-11-27 07:23:00,
2013-11-27 01:26:00,11.8,5.1,30.50,NNE,13,0.0,0.0,74,0.00,,,0.00,0,WeatherCatV1.23B16,2013-11-27 07:26:00,
2013-11-27 01:27:00,11.8,5.1,30.50,NNE,13,0.0,0.0,74,0.00,,,0.00,0,WeatherCatV1.23B16,2013-11-27 07:27:00,
2013-11-27 01:28:00,11.8,5.1,30.50,NNE,13,0.0,0.0,74,0.00,,,0.00,0,WeatherCatV1.23B16,2013-11-27 07:28:00,
2013-11-27 01:29:00,11.8,5.1,30.49,NNE,13,0.0,0.0,74,0.00,,,0.00,0,WeatherCatV1.23B16,2013-11-27 07:29:00,
2013-11-27 01:31:00,11.7,5.0,30.49,NNE,13,0.0,0.0,74,0.00,,,0.00,0,WeatherCatV1.23B16,2013-11-27 07:31:00,
2013-11-27 01:32:00,11.7,5.0,30.49,NNE,13,0.0,0.0,74,0.00,,,0.00,0,WeatherCatV1.23B16,2013-11-27 07:32:00,
2013-11-27 01:33:00,11.7,5.3,30.49,NNE,13,0.0,0.0,75,0.00,,,0.00,0,WeatherCatV1.23B16,2013-11-27 07:33:00,
2013-11-27 01:34:00,11.7,5.0,30.49,NNE,13,0.0,0.0,74,0.00,,,0.00,0,WeatherCatV1.23B16,2013-11-27 07:34:00,
2013-11-27 01:37:00,11.7,5.3,30.49,NNE,13,0.0,0.0,75,0.00,,,0.00,0,WeatherCatV1.23B16,2013-11-27 07:37:00,
2013-11-27 01:38:00,11.7,5.3,30.49,NNE,13,0.0,0.0,75,0.00,,,0.00,0,WeatherCatV1.23B16,2013-11-27 07:38:00,
2013-11-27 01:39:00,11.7,5.3,30.49,NNE,13,0.0,0.0,75,0.00,,,0.00,0,WeatherCatV1.23B16,2013-11-27 07:39:00,
2013-11-27 01:42:00,11.6,5.2,30.49,NNE,13,0.0,0.0,75,0.00,,,0.00,0,WeatherCatV1.23B16,2013-11-27 07:42:00,
2013-11-27 01:43:00,11.6,5.2,30.49,NNE,13,0.0,0.0,75,0.00,,,0.00,0,WeatherCatV1.23B16,2013-11-27 07:43:00,
2013-11-27 01:44:00,11.6,5.2,30.49,NNE,13,0.0,0.0,75,0.00,,,0.00,0,WeatherCatV1.23B16,2013-11-27 07:44:00,
2013-11-27 01:48:00,11.5,5.1,30.49,NNE,13,0.0,0.0,75,0.00,,,0.00,0,WeatherCatV1.23B16,2013-11-27 07:48:00,
2013-11-27 01:49:00,11.5,5.1,30.49,NNE,13,0.0,0.0,75,0.00,,,0.00,0,WeatherCatV1.23B16,2013-11-27 07:49:00,
2013-11-27 01:53:00,11.5,5.4,30.49,NNE,13,0.0,0.0,76,0.00,,,0.00,0,WeatherCatV1.23B16,2013-11-27 07:53:00,
2013-11-27 01:54:00,11.5,5.4,30.49,NNE,13,0.0,0.0,76,0.00,,,0.00,0,WeatherCatV1.23B16,2013-11-27 07:54:00,
2013-11-27 01:58:00,11.5,5.4,30.49,NNE,13,0.0,0.0,76,0.00,,,0.00,0,WeatherCatV1.23B16,2013-11-27 07:58:00,
2013-11-27 01:59:00,11.5,5.4,30.49,NNE,13,0.0,0.0,76,0.00,,,0.00,0,WeatherCatV1.23B16,2013-11-27 07:59:00,
2013-11-27 02:00:00,11.6,5.5,30.49,NNE,13,0.0,0.0,76,0.00,,,0.00,0,WeatherCatV1.23B16,2013-11-27 08:00:00,
2013-11-27 02:03:00,11.6,5.5,30.49,NNE,13,0.0,0.0,76,0.00,,,0.00,0,WeatherCatV1.23B16,2013-11-27 08:03:00,
2013-11-27 02:04:00,11.6,5.5,30.49,NNE,13,0.0,0.0,76,0.00,,,0.00,0,WeatherCatV1.23B16,2013-11-27 08:04:00,
2013-11-27 02:05:00,11.6,5.5,30.49,NNE,13,0.0,0.0,76,0.00,,,0.00,0,WeatherCatV1.23B16,2013-11-27 08:05:00,
2013-11-27 02:08:00,11.6,5.5,30.49,NNE,13,0.0,0.0,76,0.00,,,0.00,0,WeatherCatV1.23B16,2013-11-27 08:08:00,
2013-11-27 02:09:00,11.6,5.5,30.49,NNE,13,0.0,0.0,76,0.00,,,0.00,0,WeatherCatV1.23B16,2013-11-27 08:09:00,
2013-11-27 02:10:00,11.4,5.3,30.49,NNE,13,0.0,0.0,76,0.00,,,0.00,0,WeatherCatV1.23B16,2013-11-27 08:10:00,
2013-11-27 02:11:00,11.4,5.3,30.49,NNE,13,0.0,0.0,76,0.00,,,0.00,0,WeatherCatV1.23B16,2013-11-27 08:11:00,
2013-11-27 02:13:00,11.3,5.2,30.49,NNE,13,0.0,0.0,76,0.00,,,0.00,0,WeatherCatV1.23B16,2013-11-27 08:13:00,
2013-11-27 02:14:00,11.2,5.1,30.49,NNE,13,0.0,0.0,76,0.00,,,0.00,0,WeatherCatV1.23B16,2013-11-27 08:14:00,
2013-11-27 02:15:00,11.2,5.1,30.49,NNE,13,0.0,0.0,76,0.00,,,0.00,0,WeatherCatV1.23B16,2013-11-27 08:15:00,
2013-11-27 02:16:00,11.2,5.1,30.49,NNE,13,0.0,0.0,76,0.00,,,0.00,0,WeatherCatV1.23B16,2013-11-27 08:16:00,
2013-11-27 02:19:00,11.1,5.0,30.49,NNE,13,0.0,0.0,76,0.00,,,0.00,0,WeatherCatV1.23B16,2013-11-27 08:19:00,
2013-11-27 02:20:00,11.0,4.9,30.49,NNE,13,0.0,0.0,76,0.00,,,0.00,0,WeatherCatV1.23B16,2013-11-27 08:20:00,
2013-11-27 02:21:00,11.0,4.9,30.49,NNE,13,0.0,0.0,76,0.00,,,0.00,0,WeatherCatV1.23B16,2013-11-27 08:21:00,
2013-11-27 02:22:00,11.0,4.9,30.49,NNE,13,0.0,0.0,76,0.00,,,0.00,0,WeatherCatV1.23B16,2013-11-27 08:22:00,
2013-11-27 02:24:00,11.0,4.9,30.49,NNE,13,0.0,0.0,76,0.00,,,0.00,0,WeatherCatV1.23B16,2013-11-27 08:24:00,
2013-11-27 02:25:00,11.0,4.9,30.49,NNE,13,0.0,0.0,76,0.00,,,0.00,0,WeatherCatV1.23B16,2013-11-27 08:25:00,
2013-11-27 02:27:00,10.9,4.8,30.49,NNE,13,0.0,0.0,76,0.00,,,0.00,0,WeatherCatV1.23B16,2013-11-27 08:27:00,
2013-11-27 02:29:00,10.8,4.8,30.49,NNE,13,0.0,0.0,76,0.00,,,0.00,0,WeatherCatV1.23B16,2013-11-27 08:29:00,
2013-11-27 02:30:00,10.8,4.8,30.49,NNE,13,0.0,0.0,76,0.00,,,0.00,0,WeatherCatV1.23B16,2013-11-27 08:30:00,
2013-11-27 02:32:00,10.8,4.8,30.49,NNE,13,0.0,0.0,76,0.00,,,0.00,0,WeatherCatV1.23B16,2013-11-27 08:32:00,
2013-11-27 02:34:00,10.8,4.8,30.49,NNE,13,0.0,0.0,76,0.00,,,0.00,0,WeatherCatV1.23B16,2013-11-27 08:34:00,
2013-11-27 02:35:00,10.8,4.8,30.49,NNE,13,0.0,0.0,76,0.00,,,0.00,0,WeatherCatV1.23B16,2013-11-27 08:35:00,
2013-11-27 02:38:00,10.8,4.8,30.49,NNE,13,0.0,0.0,76,0.00,,,0.00,0,WeatherCatV1.23B16,2013-11-27 08:38:00,
2013-11-27 02:39:00,10.8,4.8,30.49,NNE,13,0.0,0.0,76,0.00,,,0.00,0,WeatherCatV1.23B16,2013-11-27 08:39:00,
2013-11-27 02:40:00,10.8,4.8,30.49,NNE,13,0.0,0.0,76,0.00,,,0.00,0,WeatherCatV1.23B16,2013-11-27 08:40:00,
2013-11-27 02:43:00,10.7,4.7,30.49,NNE,13,0.0,0.0,76,0.00,,,0.00,0,WeatherCatV1.23B16,2013-11-27 08:43:00,
2013-11-27 02:44:00,10.8,4.8,30.49,NNE,13,0.0,0.0,76,0.00,,,0.00,0,WeatherCatV1.23B16,2013-11-27 08:44:00,
2013-11-27 02:45:00,10.8,4.8,30.49,NNE,13,0.0,0.0,76,0.00,,,0.00,0,WeatherCatV1.23B16,2013-11-27 08:45:00,
2013-11-27 02:46:00,10.7,4.7,30.49,NNE,13,0.0,0.0,76,0.00,,,0.00,0,WeatherCatV1.23B16,2013-11-27 08:46:00,
2013-11-27 02:48:00,10.7,4.7,30.49,NNE,13,0.0,0.0,76,0.00,,,0.00,0,WeatherCatV1.23B16,2013-11-27 08:48:00,
2013-11-27 02:49:00,10.7,4.7,30.49,NNE,13,0.0,0.0,76,0.00,,,0.00,0,WeatherCatV1.23B16,2013-11-27 08:49:00,
2013-11-27 02:50:00,10.7,4.7,30.49,NNE,13,0.0,0.0,76,0.00,,,0.00,0,WeatherCatV1.23B16,2013-11-27 08:50:00,
2013-11-27 02:51:00,10.7,4.7,30.49,NNE,13,0.0,0.0,76,0.00,,,0.00,0,WeatherCatV1.23B16,2013-11-27 08:51:00,
2013-11-27 02:54:00,10.8,4.8,30.49,NNE,13,0.0,0.0,76,0.00,,,0.00,0,WeatherCatV1.23B16,2013-11-27 08:54:00,
2013-11-27 02:55:00,10.8,4.8,30.49,NNE,13,0.0,0.0,76,0.00,,,0.00,0,WeatherCatV1.23B16,2013-11-27 08:55:00,
2013-11-27 02:56:00,10.8,4.8,30.49,NNE,13,0.0,0.0,76,0.00,,,0.00,0,WeatherCatV1.23B16,2013-11-27 08:56:00,
2013-11-27 02:59:00,10.8,4.8,30.49,NNE,13,0.0,0.0,76,0.00,,,0.00,0,WeatherCatV1.23B16,2013-11-27 08:59:00,
2013-11-27 03:00:00,10.8,4.8,30.49,NNE,13,0.0,0.0,76,0.00,,,0.00,0,WeatherCatV1.23B16,2013-11-27 09:00:00,
2013-11-27 03:01:00,10.8,4.8,30.49,NNE,13,0.0,0.0,76,0.00,,,0.00,0,WeatherCatV1.23B16,2013-11-27 09:01:00,
2013-11-27 03:04:00,10.7,4.7,30.49,NNE,13,1.0,2.0,76,0.00,,,0.00,0,WeatherCatV1.23B16,2013-11-27 09:04:00,
2013-11-27 03:05:00,10.7,4.7,30.48,NNE,13,1.0,2.0,76,0.00,,,0.00,0,WeatherCatV1.23B16,2013-11-27 09:05:00,
2013-11-27 03:06:00,10.7,4.7,30.48,NNE,13,1.0,2.0,76,0.00,,,0.00,0,WeatherCatV1.23B16,2013-11-27 09:06:00,
2013-11-27 03:09:00,10.7,4.7,30.48,NNE,13,2.0,2.0,76,0.00,,,0.00,0,WeatherCatV1.23B16,2013-11-27 09:09:00,
2013-11-27 03:10:00,10.7,4.7,30.48,NNE,13,0.0,2.0,76,0.00,,,0.00,0,WeatherCatV1.23B16,2013-11-27 09:10:00,
2013-11-27 03:11:00,10.7,4.7,30.48,NNE,13,0.0,2.0,76,0.00,,,0.00,0,WeatherCatV1.23B16,2013-11-27 09:11:00,
2013-11-27 03:16:00,10.7,4.4,30.48,NNE,13,1.0,2.0,75,0.00,,,0.00,0,WeatherCatV1.23B16,2013-11-27 09:16:00,
2013-11-27 03:18:00,10.7,4.4,30.48,NNE,13,1.0,2.0,75,0.00,,,0.00,0,WeatherCatV1.23B16,2013-11-27 09:18:00,
2013-11-27 03:21:00,10.7,4.4,30.48,NNE,13,1.0,2.0,75,0.00,,,0.00,0,WeatherCatV1.23B16,2013-11-27 09:21:00,
2013-11-27 03:23:00,10.7,4.4,30.48,NNE,13,2.0,2.0,75,0.00,,,0.00,0,WeatherCatV1.23B16,2013-11-27 09:23:00,
2013-11-27 03:26:00,10.6,4.3,30.48,NNE,13,1.0,2.0,75,0.00,,,0.00,0,WeatherCatV1.23B16,2013-11-27 09:26:00,
2013-11-27 03:27:00,10.6,4.3,30.47,NNE,13,2.0,2.0,75,0.00,,,0.00,0,WeatherCatV1.23B16,2013-11-27 09:27:00,
2013-11-27 03:28:00,10.6,4.3,30.47,NNE,13,0.0,2.0,75,0.00,,,0.00,0,WeatherCatV1.23B16,2013-11-27 09:28:00,
2013-11-27 03:29:00,10.6,4.3,30.47,NNE,13,1.0,1.0,75,0.00,,,0.00,0,WeatherCatV1.23B16,2013-11-27 09:29:00,
2013-11-27 03:31:00,10.6,4.3,30.47,NNE,13,1.0,2.0,75,0.00,,,0.00,0,WeatherCatV1.23B16,2013-11-27 09:31:00,
2013-11-27 03:32:00,10.5,4.2,30.47,NNE,13,0.0,2.0,75,0.00,,,0.00,0,WeatherCatV1.23B16,2013-11-27 09:32:00,
2013-11-27 03:33:00,10.5,4.2,30.47,NNE,13,1.0,2.0,75,0.00,,,0.00,0,WeatherCatV1.23B16,2013-11-27 09:33:00,
2013-11-27 03:34:00,10.5,4.2,30.47,NNE,13,0.0,2.0,75,0.00,,,0.00,0,WeatherCatV1.23B16,2013-11-27 09:34:00,
2013-11-27 03:36:00,10.5,4.2,30.47,NNE,13,0.0,1.0,75,0.00,,,0.00,0,WeatherCatV1.23B16,2013-11-27 09:36:00,
2013-11-27 03:37:00,10.5,4.2,30.47,NNE,13,0.0,0.0,75,0.00,,,0.00,0,WeatherCatV1.23B16,2013-11-27 09:37:00,
2013-11-27 03:38:00,10.5,4.2,30.47,NNE,13,0.0,0.0,75,0.00,,,0.00,0,WeatherCatV1.23B16,2013-11-27 09:38:00,
2013-11-27 03:39:00,10.5,4.2,30.47,NNE,13,0.0,0.0,75,0.00,,,0.00,0,WeatherCatV1.23B16,2013-11-27 09:39:00,
2013-11-27 03:42:00,10.4,4.1,30.47,NNE,13,0.0,0.0,75,0.00,,,0.00,0,WeatherCatV1.23B16,2013-11-27 09:42:00,
2013-11-27 03:43:00,10.4,4.1,30.47,NNE,13,0.0,0.0,75,0.00,,,0.00,0,WeatherCatV1.23B16,2013-11-27 09:43:00,
2013-11-27 03:45:00,10.4,4.1,30.47,NNE,13,0.0,0.0,75,0.00,,,0.00,0,WeatherCatV1.23B16,2013-11-27 09:45:00,
2013-11-27 03:47:00,10.3,4.0,30.47,NNE,13,0.0,0.0,75,0.00,,,0.00,0,WeatherCatV1.23B16,2013-11-27 09:47:00,
2013-11-27 03:48:00,10.3,4.0,30.46,NNE,13,0.0,0.0,75,0.00,,,0.00,0,WeatherCatV1.23B16,2013-11-27 09:48:00,
2013-11-27 03:49:00,10.3,4.0,30.46,NNE,13,0.0,0.0,75,0.00,,,0.00,0,WeatherCatV1.23B16,2013-11-27 09:49:00,
2013-11-27 03:50:00,10.3,4.0,30.46,NNE,13,0.0,0.0,75,0.00,,,0.00,0,WeatherCatV1.23B16,2013-11-27 09:50:00,
2013-11-27 03:52:00,10.3,4.0,30.46,NNE,13,0.0,0.0,75,0.00,,,0.00,0,WeatherCatV1.23B16,2013-11-27 09:52:00,
2013-11-27 03:53:00,10.2,3.9,30.46,NNE,13,0.0,0.0,75,0.00,,,0.00,0,WeatherCatV1.23B16,2013-11-27 09:53:00,
2013-11-27 03:54:00,10.3,4.0,30.46,NNE,13,0.0,0.0,75,0.00,,,0.00,0,WeatherCatV1.23B16,2013-11-27 09:54:00,
2013-11-27 03:55:00,10.4,4.4,30.46,NNE,13,0.0,0.0,76,0.00,,,0.00,0,WeatherCatV1.23B16,2013-11-27 09:55:00,
2013-11-27 03:57:00,10.5,4.7,30.46,NNE,13,0.0,0.0,77,0.00,,,0.00,0,WeatherCatV1.23B16,2013-11-27 09:57:00,
2013-11-27 03:58:00,10.6,4.8,30.46,NNE,13,0.0,0.0,77,0.00,,,0.00,0,WeatherCatV1.23B16,2013-11-27 09:58:00,
2013-11-27 03:59:00,10.6,4.8,30.46,NNE,13,0.0,0.0,77,0.00,,,0.00,0,WeatherCatV1.23B16,2013-11-27 09:59:00,
2013-11-27 04:01:00,10.6,4.8,30.47,NNE,13,0.0,0.0,77,0.00,,,0.00,0,WeatherCatV1.23B16,2013-11-27 10:01:00,
2013-11-27 04:02:00,10.5,4.7,30.47,NNE,13,0.0,0.0,77,0.00,,,0.00,0,WeatherCatV1.23B16,2013-11-27 10:02:00,
2013-11-27 04:04:00,10.4,4.7,30.47,NNE,13,0.0,0.0,77,0.00,,,0.00,0,WeatherCatV1.23B16,2013-11-27 10:04:00,
2013-11-27 04:06:00,10.3,4.6,30.47,NNE,13,0.0,0.0,77,0.00,,,0.00,0,WeatherCatV1.23B16,2013-11-27 10:06:00,
2013-11-27 04:07:00,10.2,4.4,30.47,NNE,13,0.0,0.0,77,0.00,,,0.00,0,WeatherCatV1.23B16,2013-11-27 10:07:00,
2013-11-27 04:08:00,10.2,4.4,30.47,NNE,13,0.0,0.0,77,0.00,,,0.00,0,WeatherCatV1.23B16,2013-11-27 10:08:00,
2013-11-27 04:09:00,10.1,4.3,30.47,NNE,13,0.0,0.0,77,0.00,,,0.00,0,WeatherCatV1.23B16,2013-11-27 10:09:00,
2013-11-27 04:10:00,10.1,4.3,30.47,NNE,13,0.0,0.0,77,0.00,,,0.00,0,WeatherCatV1.23B16,2013-11-27 10:10:00,
2013-11-27 04:11:00,10.0,4.0,30.46,NNE,13,0.0,0.0,76,0.00,,,0.00,0,WeatherCatV1.23B16,2013-11-27 10:11:00,
2013-11-27 04:12:00,9.9,3.9,30.46,NNE,13,0.0,0.0,76,0.00,,,0.00,0,WeatherCatV1.23B16,2013-11-27 10:12:00,
2013-11-27 04:13:00,9.9,3.9,30.46,NNE,13,0.0,0.0,76,0.00,,,0.00,0,WeatherCatV1.23B16,2013-11-27 10:13:00,
2013-11-27 04:14:00,9.9,3.9,30.46,NNE,13,0.0,0.0,76,0.00,,,0.00,0,WeatherCatV1.23B16,2013-11-27 10:14:00,
2013-11-27 04:15:00,9.9,3.9,30.47,NNE,13,0.0,0.0,76,0.00,,,0.00,0,WeatherCatV1.23B16,2013-11-27 10:15:00,
2013-11-27 04:17:00,9.8,3.8,30.46,NNE,13,0.0,0.0,76,0.00,,,0.00,0,WeatherCatV1.23B16,2013-11-27 10:17:00,
2013-11-27 04:18:00,9.8,4.1,30.46,NNE,13,0.0,0.0,77,0.00,,,0.00,0,WeatherCatV1.23B16,2013-11-27 10:18:00,
2013-11-27 04:19:00,9.8,4.1,30.46,NNE,13,0.0,0.0,77,0.00,,,0.00,0,WeatherCatV1.23B16,2013-11-27 10:19:00,
2013-11-27 04:20:00,9.8,4.1,30.46,NNE,13,0.0,0.0,77,0.00,,,0.00,0,WeatherCatV1.23B16,2013-11-27 10:20:00,
2013-11-27 04:22:00,9.7,4.0,30.46,NNE,13,0.0,0.0,77,0.00,,,0.00,0,WeatherCatV1.23B16,2013-11-27 10:22:00,
2013-11-27 04:23:00,9.6,3.9,30.46,NNE,13,0.0,0.0,77,0.00,,,0.00,0,WeatherCatV1.23B16,2013-11-27 10:23:00,
2013-11-27 04:24:00,9.6,3.9,30.46,NNE,13,0.0,0.0,77,0.00,,,0.00,0,WeatherCatV1.23B16,2013-11-27 10:24:00,
2013-11-27 04:25:00,9.6,3.9,30.46,NNE,13,0.0,0.0,77,0.00,,,0.00,0,WeatherCatV1.23B16,2013-11-27 10:25:00,
2013-11-27 04:27:00,9.5,3.8,30.46,NNE,13,0.0,0.0,77,0.00,,,0.00,0,WeatherCatV1.23B16,2013-11-27 10:27:00,
2013-11-27 04:28:00,9.5,3.8,30.46,NNE,13,0.0,0.0,77,0.00,,,0.00,0,WeatherCatV1.23B16,2013-11-27 10:28:00,
2013-11-27 04:30:00,9.4,3.7,30.46,NNE,13,0.0,0.0,77,0.00,,,0.00,0,WeatherCatV1.23B16,2013-11-27 10:30:00,
2013-11-27 04:31:00,9.4,3.7,30.46,NNE,13,0.0,0.0,77,0.00,,,0.00,0,WeatherCatV1.23B16,2013-11-27 10:31:00,
2013-11-27 04:33:00,9.3,3.9,30.46,NNE,13,0.0,0.0,78,0.00,,,0.00,0,WeatherCatV1.23B16,2013-11-27 10:33:00,
2013-11-27 04:35:00,9.2,3.8,30.46,NNE,13,0.0,0.0,78,0.00,,,0.00,0,WeatherCatV1.23B16,2013-11-27 10:35:00,
2013-11-27 04:36:00,9.2,3.8,30.46,NNE,13,0.0,0.0,78,0.00,,,0.00,0,WeatherCatV1.23B16,2013-11-27 10:36:00,
2013-11-27 04:38:00,9.2,3.8,30.46,NNE,13,0.0,0.0,78,0.00,,,0.00,0,WeatherCatV1.23B16,2013-11-27 10:38:00,
2013-11-27 04:39:00,9.3,3.9,30.46,NNE,13,0.0,0.0,78,0.00,,,0.00,0,WeatherCatV1.23B16,2013-11-27 10:39:00,
2013-11-27 04:40:00,9.4,4.2,30.46,NNE,13,0.0,0.0,79,0.00,,,0.00,0,WeatherCatV1.23B16,2013-11-27 10:40:00,
2013-11-27 04:41:00,9.5,4.3,30.46,NNE,13,0.0,0.0,79,0.00,,,0.00,0,WeatherCatV1.23B16,2013-11-27 10:41:00,
2013-11-27 04:42:00,9.5,4.3,30.46,NNE,13,0.0,0.0,79,0.00,,,0.00,0,WeatherCatV1.23B16,2013-11-27 10:42:00,
2013-11-27 04:43:00,9.5,4.3,30.46,NNE,13,0.0,0.0,79,0.00,,,0.00,0,WeatherCatV1.23B16,2013-11-27 10:43:00,
2013-11-27 04:44:00,9.5,4.3,30.46,NNE,13,0.0,0.0,79,0.00,,,0.00,0,WeatherCatV1.23B16,2013-11-27 10:44:00,
2013-11-27 04:45:00,9.5,4.3,30.47,NNE,13,0.0,0.0,79,0.00,,,0.00,0,WeatherCatV1.23B16,2013-11-27 10:45:00,
2013-11-27 04:46:00,9.5,4.3,30.47,NNE,13,0.0,0.0,79,0.00,,,0.00,0,WeatherCatV1.23B16,2013-11-27 10:46:00,
2013-11-27 04:47:00,9.5,4.3,30.47,NNE,13,0.0,0.0,79,0.00,,,0.00,0,WeatherCatV1.23B16,2013-11-27 10:47:00,
2013-11-27 04:48:00,9.4,4.2,30.47,NNE,13,0.0,0.0,79,0.00,,,0.00,0,WeatherCatV1.23B16,2013-11-27 10:48:00,
2013-11-27 04:49:00,9.4,4.2,30.47,NNE,13,0.0,0.0,79,0.00,,,0.00,0,WeatherCatV1.23B16,2013-11-27 10:49:00,
2013-11-27 04:50:00,9.4,4.2,30.46,NNE,13,0.0,0.0,79,0.00,,,0.00,0,WeatherCatV1.23B16,2013-11-27 10:50:00,
2013-11-27 04:51:00,9.3,4.1,30.46,NNE,13,0.0,0.0,79,0.00,,,0.00,0,WeatherCatV1.23B16,2013-11-27 10:51:00,
2013-11-27 04:52:00,9.3,4.1,30.46,NNE,13,0.0,0.0,79,0.00,,,0.00,0,WeatherCatV1.23B16,2013-11-27 10:52:00,
2013-11-27 04:53:00,9.3,4.1,30.46,NNE,13,0.0,0.0,79,0.00,,,0.00,0,WeatherCatV1.23B16,2013-11-27 10:53:00,
2013-11-27 04:54:00,9.2,4.0,30.46,NNE,13,0.0,0.0,79,0.00,,,0.00,0,WeatherCatV1.23B16,2013-11-27 10:54:00,
2013-11-27 04:56:00,9.2,4.0,30.46,NNE,13,0.0,0.0,79,0.00,,,0.00,0,WeatherCatV1.23B16,2013-11-27 10:56:00,
2013-11-27 04:57:00,9.2,4.0,30.46,NNE,13,0.0,0.0,79,0.00,,,0.00,0,WeatherCatV1.23B16,2013-11-27 10:57:00,
2013-11-27 04:58:00,9.1,3.9,30.46,NNE,13,0.0,0.0,79,0.00,,,0.00,0,WeatherCatV1.23B16,2013-11-27 10:58:00,
2013-11-27 04:59:00,9.1,3.9,30.46,NNE,13,0.0,0.0,79,0.00,,,0.00,0,WeatherCatV1.23B16,2013-11-27 10:59:00,
2013-11-27 05:01:00,9.1,3.9,30.46,NNE,13,0.0,0.0,79,0.00,,,0.00,0,WeatherCatV1.23B16,2013-11-27 11:01:00,
2013-11-27 05:02:00,9.1,3.9,30.46,NNE,13,0.0,0.0,79,0.00,,,0.00,0,WeatherCatV1.23B16,2013-11-27 11:02:00,
2013-11-27 05:03:00,9.1,3.9,30.46,NNE,13,0.0,0.0,79,0.00,,,0.00,0,WeatherCatV1.23B16,2013-11-27 11:03:00,
2013-11-27 05:04:00,9.1,3.9,30.46,NNE,13,0.0,0.0,79,0.00,,,0.00,0,WeatherCatV1.23B16,2013-11-27 11:04:00,
2013-11-27 05:06:00,9.2,4.3,30.46,NNE,13,0.0,0.0,80,0.00,,,0.00,0,WeatherCatV1.23B16,2013-11-27 11:06:00,
2013-11-27 05:07:00,9.2,4.0,30.46,NNE,13,0.0,0.0,79,0.00,,,0.00,0,WeatherCatV1.23B16,2013-11-27 11:07:00,
2013-11-27 05:08:00,9.2,4.3,30.45,NNE,13,0.0,0.0,80,0.00,,,0.00,0,WeatherCatV1.23B16,2013-11-27 11:08:00,
2013-11-27 05:09:00,9.2,4.3,30.45,NNE,13,0.0,0.0,80,0.00,,,0.00,0,WeatherCatV1.23B16,2013-11-27 11:09:00,
2013-11-27 05:10:00,9.2,4.3,30.45,NNE,13,0.0,0.0,80,0.00,,,0.00,0,WeatherCatV1.23B16,2013-11-27 11:10:00,
2013-11-27 05:11:00,9.3,4.4,30.45,NNE,13,0.0,0.0,80,0.00,,,0.00,0,WeatherCatV1.23B16,2013-11-27 11:11:00,
2013-11-27 05:13:00,9.4,4.5,30.45,NNE,13,0.0,0.0,80,0.00,,,0.00,0,WeatherCatV1.23B16,2013-11-27 11:13:00,
2013-11-27 05:14:00,9.4,4.5,30.46,NNE,13,0.0,0.0,80,0.00,,,0.00,0,WeatherCatV1.23B16,2013-11-27 11:14:00,
2013-11-27 05:15:00,9.3,4.4,30.46,NNE,13,0.0,0.0,80,0.00,,,0.00,0,WeatherCatV1.23B16,2013-11-27 11:15:00,
2013-11-27 05:16:00,9.3,4.4,30.46,NNE,13,0.0,0.0,80,0.00,,,0.00,0,WeatherCatV1.23B16,2013-11-27 11:16:00,
2013-11-27 05:18:00,9.2,4.3,30.45,NNE,13,0.0,0.0,80,0.00,,,0.00,0,WeatherCatV1.23B16,2013-11-27 11:18:00,
2013-11-27 05:19:00,9.2,4.3,30.45,NNE,13,0.0,0.0,80,0.00,,,0.00,0,WeatherCatV1.23B16,2013-11-27 11:19:00,
2013-11-27 05:20:00,9.2,4.3,30.45,NNE,13,0.0,0.0,80,0.00,,,0.00,0,WeatherCatV1.23B16,2013-11-27 11:20:00,
2013-11-27 05:22:00,9.2,4.3,30.45,NNE,13,0.0,0.0,80,0.00,,,0.00,0,WeatherCatV1.23B16,2013-11-27 11:22:00,
2013-11-27 05:23:00,9.3,4.4,30.45,NNE,13,0.0,0.0,80,0.00,,,0.00,0,WeatherCatV1.23B16,2013-11-27 11:23:00,
2013-11-27 05:24:00,9.3,4.4,30.45,NNE,13,0.0,0.0,80,0.00,,,0.00,0,WeatherCatV1.23B16,2013-11-27 11:24:00,
2013-11-27 05:25:00,9.3,4.4,30.44,NNE,13,0.0,0.0,80,0.00,,,0.00,0,WeatherCatV1.23B16,2013-11-27 11:25:00,
2013-11-27 05:27:00,9.3,4.4,30.44,NNE,13,0.0,0.0,80,0.00,,,0.00,0,WeatherCatV1.23B16,2013-11-27 11:27:00,
2013-11-27 05:28:00,9.3,4.4,30.44,NNE,13,0.0,0.0,80,0.00,,,0.00,0,WeatherCatV1.23B16,2013-11-27 11:28:00,
2013-11-27 05:29:00,9.2,4.3,30.44,NNE,13,0.0,0.0,80,0.00,,,0.00,0,WeatherCatV1.23B16,2013-11-27 11:29:00,
2013-11-27 05:30:00,9.2,4.3,30.44,NNE,13,0.0,0.0,80,0.00,,,0.00,0,WeatherCatV1.23B16,2013-11-27 11:30:00,
2013-11-27 05:32:00,9.1,4.2,30.44,NNE,13,0.0,0.0,80,0.00,,,0.00,0,WeatherCatV1.23B16,2013-11-27 11:32:00,
2013-11-27 05:34:00,9.1,4.2,30.45,NNE,13,0.0,0.0,80,0.00,,,0.00,0,WeatherCatV1.23B16,2013-11-27 11:34:00,
2013-11-27 05:35:00,9.1,4.2,30.45,NNE,13,0.0,0.0,80,0.00,,,0.00,0,WeatherCatV1.23B16,2013-11-27 11:35:00,
2013-11-27 05:37:00,8.9,4.0,30.44,NNE,13,0.0,0.0,80,0.00,,,0.00,0,WeatherCatV1.23B16,2013-11-27 11:37:00,
2013-11-27 05:39:00,8.9,4.0,30.44,NNE,13,0.0,0.0,80,0.00,,,0.00,0,WeatherCatV1.23B16,2013-11-27 11:39:00,
2013-11-27 05:40:00,8.9,4.0,30.44,NNE,13,0.0,0.0,80,0.00,,,0.00,0,WeatherCatV1.23B16,2013-11-27 11:40:00,
2013-11-27 05:41:00,8.9,4.0,30.45,NNE,13,1.0,1.0,80,0.00,,,0.00,0,WeatherCatV1.23B16,2013-11-27 11:41:00,
2013-11-27 05:42:00,8.8,3.9,30.45,NNE,13,0.0,0.0,80,0.00,,,0.00,0,WeatherCatV1.23B16,2013-11-27 11:42:00,
2013-11-27 05:44:00,8.7,3.8,30.45,NNE,13,1.0,1.0,80,0.00,,,0.00,0,WeatherCatV1.23B16,2013-11-27 11:44:00,
2013-11-27 05:45:00,8.7,3.8,30.44,NNE,13,2.0,2.0,80,0.00,,,0.00,0,WeatherCatV1.23B16,2013-11-27 11:45:00,
2013-11-27 05:46:00,8.6,3.7,30.45,NNE,13,0.0,2.0,80,0.00,,,0.00,0,WeatherCatV1.23B16,2013-11-27 11:46:00,
2013-11-27 05:47:00,8.6,3.7,30.44,NNE,13,0.0,1.0,80,0.00,,,0.00,0,WeatherCatV1.23B16,2013-11-27 11:47:00,
2013-11-27 05:50:00,8.6,4.0,30.45,NNE,13,0.0,1.0,81,0.00,,,0.00,0,WeatherCatV1.23B16,2013-11-27 11:50:00,
2013-11-27 05:51:00,8.6,4.0,30.45,NNE,13,0.0,1.0,81,0.00,,,0.00,0,WeatherCatV1.23B16,2013-11-27 11:51:00,
2013-11-27 05:53:00,8.6,4.0,30.45,NNE,13,0.0,2.0,81,0.00,,,0.00,0,WeatherCatV1.23B16,2013-11-27 11:53:00,
2013-11-27 05:55:00,8.6,4.0,30.45,NNE,13,0.0,0.0,81,0.00,,,0.00,0,WeatherCatV1.23B16,2013-11-27 11:55:00,
2013-11-27 05:56:00,8.6,4.0,30.44,NNE,13,0.0,0.0,81,0.00,,,0.00,0,WeatherCatV1.23B16,2013-11-27 11:56:00,
2013-11-27 05:59:00,8.6,4.0,30.44,NNE,13,0.0,0.0,81,0.00,,,0.00,0,WeatherCatV1.23B16,2013-11-27 11:59:00,
2013-11-27 06:00:00,8.7,4.1,30.44,NNE,13,0.0,1.0,81,0.00,,,0.00,0,WeatherCatV1.23B16,2013-11-27 12:00:00,
2013-11-27 06:01:00,8.7,4.1,30.44,NNE,13,0.0,1.0,81,0.00,,,0.00,0,WeatherCatV1.23B16,2013-11-27 12:01:00,
2013-11-27 06:04:00,8.7,4.1,30.44,NNE,13,0.0,0.0,81,0.00,,,0.00,0,WeatherCatV1.23B16,2013-11-27 12:04:00,
2013-11-27 06:05:00,8.8,4.2,30.44,NNE,13,0.0,0.0,81,0.00,,,0.00,0,WeatherCatV1.23B16,2013-11-27 12:05:00,
2013-11-27 06:06:00,8.8,4.2,30.44,NNE,13,0.0,0.0,81,0.00,,,0.00,0,WeatherCatV1.23B16,2013-11-27 12:06:00,
2013-11-27 06:07:00,8.8,4.2,30.44,NNE,13,0.0,0.0,81,0.00,,,0.00,0,WeatherCatV1.23B16,2013-11-27 12:07:00,
2013-11-27 06:09:00,8.8,4.2,30.44,NNE,13,0.0,0.0,81,0.00,,,0.00,0,WeatherCatV1.23B16,2013-11-27 12:09:00,
2013-11-27 06:10:00,8.8,4.2,30.44,NNE,13,0.0,0.0,81,0.00,,,0.00,0,WeatherCatV1.23B16,2013-11-27 12:10:00,
2013-11-27 06:11:00,8.9,4.3,30.44,NNE,13,1.0,2.0,81,0.00,,,0.00,0,WeatherCatV1.23B16,2013-11-27 12:11:00,
2013-11-27 06:12:00,8.9,4.3,30.44,NNE,13,1.0,2.0,81,0.00,,,0.00,0,WeatherCatV1.23B16,2013-11-27 12:12:00,
2013-11-27 06:15:00,9.0,4.4,30.44,NNE,13,1.0,2.0,81,0.00,,,0.00,0,WeatherCatV1.23B16,2013-11-27 12:15:00,
2013-11-27 06:16:00,9.0,4.4,30.44,NNE,13,0.0,2.0,81,0.00,,,0.00,0,WeatherCatV1.23B16,2013-11-27 12:16:00,
2013-11-27 06:17:00,9.1,4.5,30.44,NNE,13,1.0,1.0,81,0.00,,,0.00,0,WeatherCatV1.23B16,2013-11-27 12:17:00,
2013-11-27 06:20:00,9.2,4.6,30.43,NNE,13,1.0,3.0,81,0.00,,,0.00,0,WeatherCatV1.23B16,2013-11-27 12:20:00,
2013-11-27 06:21:00,9.2,4.6,30.43,NNE,13,0.0,3.0,81,0.00,,,0.00,0,WeatherCatV1.23B16,2013-11-27 12:21:00,
2013-11-27 06:22:00,9.3,4.7,30.43,NNE,13,2.0,3.0,81,0.00,,,0.00,0,WeatherCatV1.23B16,2013-11-27 12:22:00,
2013-11-27 06:25:00,9.4,4.8,30.44,NNE,13,0.0,2.0,81,0.00,,,0.00,0,WeatherCatV1.23B16,2013-11-27 12:25:00,
2013-11-27 06:26:00,9.5,4.9,30.44,NNE,13,0.0,1.0,81,0.00,,,0.00,0,WeatherCatV1.23B16,2013-11-27 12:26:00,
2013-11-27 06:27:00,9.5,4.9,30.44,NNE,13,1.0,1.0,81,0.00,,,0.00,0,WeatherCatV1.23B16,2013-11-27 12:27:00,
2013-11-27 06:31:00,9.7,5.1,30.44,NNE,13,0.0,2.0,81,0.00,,,0.00,0,WeatherCatV1.23B16,2013-11-27 12:31:00,
2013-11-27 06:32:00,9.7,5.1,30.44,NNE,13,0.0,1.0,81,0.00,,,0.00,0,WeatherCatV1.23B16,2013-11-27 12:32:00,
2013-11-27 06:36:00,9.9,5.3,30.44,NNE,13,0.0,0.0,81,0.00,,,0.00,0,WeatherCatV1.23B16,2013-11-27 12:36:00,
2013-11-27 06:37:00,9.9,5.3,30.44,NNE,13,0.0,0.0,81,0.00,,,0.00,0,WeatherCatV1.23B16,2013-11-27 12:37:00,
2013-11-27 06:41:00,9.9,5.0,30.45,NNE,13,0.0,0.0,80,0.00,,,0.00,0,WeatherCatV1.23B16,2013-11-27 12:41:00,
2013-11-27 06:42:00,9.9,5.0,30.44,NNE,13,0.0,0.0,80,0.00,,,0.00,0,WeatherCatV1.23B16,2013-11-27 12:42:00,
2013-11-27 06:43:00,9.9,5.0,30.44,NNE,13,0.0,0.0,80,0.00,,,0.00,0,WeatherCatV1.23B16,2013-11-27 12:43:00,
2013-11-27 06:46:00,9.9,5.0,30.44,NNE,13,0.0,0.0,80,0.00,,,0.00,0,WeatherCatV1.23B16,2013-11-27 12:46:00,
2013-11-27 06:47:00,9.9,5.0,30.44,NNE,13,0.0,0.0,80,0.00,,,0.00,0,WeatherCatV1.23B16,2013-11-27 12:47:00,
2013-11-27 06:48:00,9.9,5.0,30.44,NNE,13,0.0,0.0,80,0.00,,,0.00,0,WeatherCatV1.23B16,2013-11-27 12:48:00,
2013-11-27 06:51:00,9.9,5.0,30.44,NNE,13,0.0,0.0,80,0.00,,,0.00,0,WeatherCatV1.23B16,2013-11-27 12:51:00,
2013-11-27 06:53:00,9.9,5.0,30.44,NNE,13,0.0,0.0,80,0.00,,,0.00,0,WeatherCatV1.23B16,2013-11-27 12:53:00,
2013-11-27 06:56:00,9.9,5.0,30.43,NNE,13,0.0,0.0,80,0.00,,,0.00,0,WeatherCatV1.23B16,2013-11-27 12:56:00,
2013-11-27 06:57:00,9.9,5.0,30.43,NNE,13,0.0,0.0,80,0.00,,,0.00,0,WeatherCatV1.23B16,2013-11-27 12:57:00,
2013-11-27 06:58:00,9.9,5.0,30.43,NNE,13,0.0,0.0,80,0.00,,,0.00,0,WeatherCatV1.23B16,2013-11-27 12:58:00,
2013-11-27 06:59:00,9.9,5.0,30.43,NNE,13,0.0,0.0,80,0.00,,,0.00,0,WeatherCatV1.23B16,2013-11-27 12:59:00,
2013-11-27 07:01:00,10.1,5.4,30.43,NNE,13,0.0,0.0,81,0.00,,,0.00,0,WeatherCatV1.23B16,2013-11-27 13:01:00,
2013-11-27 07:02:00,10.1,5.4,30.43,NNE,13,0.0,0.0,81,0.00,,,0.00,0,WeatherCatV1.23B16,2013-11-27 13:02:00,
2013-11-27 07:03:00,10.2,5.6,30.44,NNE,13,0.0,0.0,81,0.00,,,0.00,0,WeatherCatV1.23B16,2013-11-27 13:03:00,
2013-11-27 07:04:00,10.2,5.6,30.43,NNE,13,0.0,0.0,81,0.00,,,0.00,0,WeatherCatV1.23B16,2013-11-27 13:04:00,
2013-11-27 07:07:00,10.3,5.7,30.43,NNE,13,0.0,0.0,81,0.00,,,0.00,0,WeatherCatV1.23B16,2013-11-27 13:07:00,
2013-11-27 07:08:00,10.3,5.7,30.43,NNE,13,0.0,0.0,81,0.00,,,0.00,0,WeatherCatV1.23B16,2013-11-27 13:08:00,
2013-11-27 07:09:00,10.4,5.8,30.43,NNE,13,0.0,0.0,81,0.00,,,0.00,0,WeatherCatV1.23B16,2013-11-27 13:09:00,
2013-11-27 07:12:00,10.3,5.7,30.43,NNE,13,0.0,0.0,81,0.00,,,0.00,0,WeatherCatV1.23B16,2013-11-27 13:12:00,
2013-11-27 07:13:00,10.4,5.8,30.43,NNE,13,0.0,0.0,81,0.00,,,0.00,0,WeatherCatV1.23B16,2013-11-27 13:13:00,
2013-11-27 07:14:00,10.4,5.8,30.43,NNE,13,0.0,0.0,81,0.00,,,0.00,0,WeatherCatV1.23B16,2013-11-27 13:14:00,
2013-11-27 07:17:00,10.7,6.0,30.42,NNE,13,0.0,0.0,81,0.00,,,0.00,0,WeatherCatV1.23B16,2013-11-27 13:17:00,
2013-11-27 07:18:00,10.8,6.1,30.43,NNE,13,0.0,0.0,81,0.00,,,0.00,0,WeatherCatV1.23B16,2013-11-27 13:18:00,
2013-11-27 07:19:00,10.8,6.1,30.43,NNE,13,0.0,0.0,81,0.00,,,0.00,0,WeatherCatV1.23B16,2013-11-27 13:19:00,
2013-11-27 07:20:00,10.8,6.1,30.42,NNE,13,0.0,0.0,81,0.00,,,0.00,0,WeatherCatV1.23B16,2013-11-27 13:20:00,
2013-11-27 07:22:00,10.9,6.2,30.42,NNE,13,0.0,0.0,81,0.00,,,0.00,0,WeatherCatV1.23B16,2013-11-27 13:22:00,
2013-11-27 07:24:00,11.1,6.4,30.42,NNE,13,0.0,0.0,81,0.00,,,0.00,0,WeatherCatV1.23B16,2013-11-27 13:24:00,
2013-11-27 07:25:00,11.2,6.5,30.42,NNE,13,1.0,3.0,81,0.00,,,0.00,0,WeatherCatV1.23B16,2013-11-27 13:25:00,
2013-11-27 07:27:00,11.2,6.5,30.42,NNE,13,0.0,2.0,81,0.00,,,0.00,0,WeatherCatV1.23B16,2013-11-27 13:27:00,
2013-11-27 07:29:00,11.2,6.5,30.42,NNE,13,0.0,1.0,81,0.00,,,0.00,0,WeatherCatV1.23B16,2013-11-27 13:29:00,
2013-11-27 07:30:00,11.4,7.0,30.41,NNE,13,2.0,3.0,82,0.00,,,0.00,5,WeatherCatV1.23B16,2013-11-27 13:30:00,
2013-11-27 07:31:00,11.5,7.1,30.41,NNE,13,1.0,3.0,82,0.00,,,0.00,5,WeatherCatV1.23B16,2013-11-27 13:31:00,
2013-11-27 07:32:00,11.6,7.2,30.41,NNE,13,1.0,1.0,82,0.00,,,0.00,5,WeatherCatV1.23B16,2013-11-27 13:32:00,
2013-11-27 07:33:00,11.6,7.2,30.41,NNE,13,2.0,3.0,82,0.00,,,0.00,5,WeatherCatV1.23B16,2013-11-27 13:33:00,
2013-11-27 07:34:00,11.6,7.2,30.41,NNE,13,2.0,3.0,82,0.00,,,0.00,5,WeatherCatV1.23B16,2013-11-27 13:34:00,
2013-11-27 07:36:00,11.5,7.1,30.41,NNE,13,3.0,4.0,82,0.00,,,0.00,7,WeatherCatV1.23B16,2013-11-27 13:36:00,
2013-11-27 07:37:00,11.4,6.7,30.41,NNE,13,2.0,3.0,81,0.00,,,0.00,7,WeatherCatV1.23B16,2013-11-27 13:37:00,
2013-11-27 07:38:00,11.4,6.7,30.41,NNE,13,2.0,2.0,81,0.00,,,0.00,7,WeatherCatV1.23B16,2013-11-27 13:38:00,
2013-11-27 07:39:00,11.4,6.7,30.41,NNE,13,3.0,3.0,81,0.00,,,0.00,7,WeatherCatV1.23B16,2013-11-27 13:39:00,
2013-11-27 07:41:00,11.4,6.7,30.41,NNE,13,3.0,4.0,81,0.00,,,0.00,9,WeatherCatV1.23B16,2013-11-27 13:41:00,
2013-11-27 07:42:00,11.4,6.7,30.41,NNE,13,0.0,4.0,81,0.00,,,0.00,9,WeatherCatV1.23B16,2013-11-27 13:42:00,
2013-11-27 07:43:00,11.4,6.7,30.40,NNE,13,4.0,4.0,81,0.00,,,0.00,11,WeatherCatV1.23B16,2013-11-27 13:43:00,
2013-11-27 07:44:00,11.6,6.9,30.41,NNE,13,1.0,4.0,81,0.00,,,0.00,11,WeatherCatV1.23B16,2013-11-27 13:44:00,
2013-11-27 07:45:00,11.6,6.9,30.41,NNE,13,1.0,4.0,81,0.00,,,0.00,11,WeatherCatV1.23B16,2013-11-27 13:45:00,
2013-11-27 07:46:00,11.7,7.0,30.41,NNE,13,2.0,4.0,81,0.00,,,0.00,11,WeatherCatV1.23B16,2013-11-27 13:46:00,
2013-11-27 07:47:00,11.8,7.1,30.41,NNE,13,1.0,4.0,81,0.00,,,0.00,12,WeatherCatV1.23B16,2013-11-27 13:47:00,
2013-11-27 07:48:00,11.9,7.2,30.41,NNE,13,1.0,3.0,81,0.00,,,0.00,12,WeatherCatV1.23B16,2013-11-27 13:48:00,
2013-11-27 07:49:00,12.0,7.0,30.41,NNE,13,0.0,3.0,80,0.00,,,0.00,12,WeatherCatV1.23B16,2013-11-27 13:49:00,
2013-11-27 07:50:00,12.1,7.1,30.40,NNE,13,5.0,5.0,80,0.00,,,0.00,14,WeatherCatV1.23B16,2013-11-27 13:50:00,
2013-11-27 07:51:00,12.2,7.2,30.40,NNE,13,3.0,5.0,80,0.00,,,0.00,14,WeatherCatV1.23B16,2013-11-27 13:51:00,
2013-11-27 07:52:00,12.3,7.3,30.40,NNE,13,0.0,4.0,80,0.00,,,0.00,16,WeatherCatV1.23B16,2013-11-27 13:52:00,
2013-11-27 07:53:00,12.4,7.4,30.40,NNE,13,0.0,4.0,80,0.00,,,0.00,16,WeatherCatV1.23B16,2013-11-27 13:53:00,
2013-11-27 07:54:00,12.5,7.2,30.41,NNE,13,2.0,2.0,79,0.00,,,0.00,19,WeatherCatV1.23B16,2013-11-27 13:54:00,
2013-11-27 07:55:00,12.6,7.3,30.41,NNE,13,2.0,2.0,79,0.00,,,0.00,19,WeatherCatV1.23B16,2013-11-27 13:55:00,
2013-11-27 07:56:00,12.7,7.4,30.40,NNE,13,0.0,2.0,79,0.00,,,0.00,21,WeatherCatV1.23B16,2013-11-27 13:56:00,
2013-11-27 07:58:00,12.9,7.6,30.41,NNE,13,0.0,3.0,79,0.00,,,0.00,23,WeatherCatV1.23B16,2013-11-27 13:58:00,
2013-11-27 08:00:00,13.1,7.8,30.41,NNE,13,1.0,4.0,79,0.00,,,0.00,26,WeatherCatV1.23B16,2013-11-27 14:00:00,
2013-11-27 08:02:00,13.4,8.1,30.41,NNE,13,3.0,3.0,79,0.00,,,0.00,28,WeatherCatV1.23B16,2013-11-27 14:02:00,
2013-11-27 08:03:00,13.5,7.9,30.41,NNE,13,0.0,3.0,78,0.00,,,0.00,33,WeatherCatV1.23B16,2013-11-27 14:03:00,
2013-11-27 08:05:00,13.8,7.9,30.41,NNE,13,4.0,4.0,77,0.00,,,0.00,40,WeatherCatV1.23B16,2013-11-27 14:05:00,
2013-11-27 08:07:00,13.9,8.1,30.41,NNE,13,1.0,5.0,77,0.00,,,0.00,42,WeatherCatV1.23B16,2013-11-27 14:07:00,
2013-11-27 08:08:00,14.0,8.1,30.41,NNE,13,2.0,5.0,77,0.00,,,0.00,47,WeatherCatV1.23B16,2013-11-27 14:08:00,
2013-11-27 08:09:00,14.1,7.9,30.41,NNE,13,2.0,5.0,76,0.00,,,0.00,46,WeatherCatV1.23B16,2013-11-27 14:09:00,
2013-11-27 08:10:00,14.2,8.1,30.41,NNE,12,0.0,5.0,76,0.00,,,0.00,42,WeatherCatV1.23B16,2013-11-27 14:10:00,
2013-11-27 08:11:00,14.3,7.8,30.41,North,11,1.0,5.0,75,0.00,,,0.00,47,WeatherCatV1.23B16,2013-11-27 14:11:00,
2013-11-27 08:12:00,14.4,8.2,30.41,NNE,12,3.0,3.0,76,0.00,,,0.00,39,WeatherCatV1.23B16,2013-11-27 14:12:00,
2013-11-27 08:13:00,14.4,7.9,30.41,North,11,5.0,6.0,75,0.00,,,0.00,39,WeatherCatV1.23B16,2013-11-27 14:13:00,
2013-11-27 08:14:00,14.5,8.1,30.41,North,11,1.0,6.0,75,0.00,,,0.00,58,WeatherCatV1.23B16,2013-11-27 14:14:00,
2013-11-27 08:15:00,14.7,8.2,30.40,North,11,1.0,4.0,75,0.00,,,0.00,63,WeatherCatV1.23B16,2013-11-27 14:15:00,
2013-11-27 08:16:00,14.7,8.2,30.40,North,11,2.0,4.0,75,0.00,,,0.00,63,WeatherCatV1.23B16,2013-11-27 14:16:00,
2013-11-27 08:17:00,14.9,8.4,30.41,North,5,3.0,5.0,75,0.00,,,0.00,69,WeatherCatV1.23B16,2013-11-27 14:17:00,
2013-11-27 08:18:00,14.9,8.1,30.40,North,5,2.0,5.0,74,0.00,,,0.00,72,WeatherCatV1.23B16,2013-11-27 14:18:00,
2013-11-27 08:19:00,14.9,8.1,30.40,North,5,0.0,5.0,74,0.00,,,0.00,74,WeatherCatV1.23B16,2013-11-27 14:19:00,
2013-11-27 08:20:00,15.0,8.2,30.40,NNW,333,3.0,6.0,74,0.00,,,0.00,77,WeatherCatV1.23B16,2013-11-27 14:20:00,
2013-11-27 08:21:00,15.1,8.0,30.40,NNW,333,2.0,6.0,73,0.00,,,0.00,79,WeatherCatV1.23B16,2013-11-27 14:21:00,
2013-11-27 08:23:00,15.1,8.0,30.40,NW,324,5.0,5.0,73,0.00,,,0.00,84,WeatherCatV1.23B16,2013-11-27 14:23:00,
2013-11-27 08:24:00,15.2,8.1,30.40,WNW,285,3.0,7.0,73,0.00,,,0.00,91,WeatherCatV1.23B16,2013-11-27 14:24:00,
2013-11-27 08:25:00,15.3,8.2,30.40,WNW,284,3.0,4.0,73,0.00,,,0.00,91,WeatherCatV1.23B16,2013-11-27 14:25:00,
2013-11-27 08:26:00,15.4,8.3,30.40,WNW,285,2.0,4.0,73,0.00,,,0.00,97,WeatherCatV1.23B16,2013-11-27 14:26:00,
2013-11-27 08:27:00,15.4,8.3,30.40,WNW,285,2.0,4.0,73,0.00,,,0.00,97,WeatherCatV1.23B16,2013-11-27 14:27:00,
2013-11-27 08:28:00,15.5,8.4,30.40,WNW,284,4.0,4.0,73,0.00,,,0.00,98,WeatherCatV1.23B16,2013-11-27 14:28:00,
2013-11-27 08:30:00,15.8,8.7,30.41,West,264,2.0,6.0,73,0.00,,,0.00,105,WeatherCatV1.23B16,2013-11-27 14:30:00,
2013-11-27 08:31:00,15.9,8.5,30.41,West,264,0.0,2.0,72,0.00,,,0.00,113,WeatherCatV1.23B16,2013-11-27 14:31:00,
2013-11-27 08:32:00,16.0,8.6,30.41,West,264,0.0,2.0,72,0.00,,,0.00,113,WeatherCatV1.23B16,2013-11-27 14:32:00,
2013-11-27 08:33:00,16.1,8.7,30.41,West,264,0.0,0.0,72,0.00,,,0.00,97,WeatherCatV1.23B16,2013-11-27 14:33:00,
2013-11-27 08:35:00,16.4,9.0,30.41,West,264,0.0,3.0,72,0.00,,,0.00,123,WeatherCatV1.23B16,2013-11-27 14:35:00,
2013-11-27 08:36:00,16.6,9.5,30.41,West,264,0.0,0.0,73,0.00,,,0.00,125,WeatherCatV1.23B16,2013-11-27 14:36:00,
2013-11-27 08:37:00,16.9,9.8,30.41,West,264,0.0,0.0,73,0.00,,,0.00,128,WeatherCatV1.23B16,2013-11-27 14:37:00,
2013-11-27 08:38:00,17.1,10.0,30.42,West,264,3.0,3.0,73,0.00,,,0.00,134,WeatherCatV1.23B16,2013-11-27 14:38:00,
2013-11-27 08:40:00,17.2,9.4,30.42,West,263,2.0,5.0,71,0.00,,,0.00,137,WeatherCatV1.23B16,2013-11-27 14:40:00,
2013-11-27 08:41:00,17.2,9.4,30.42,West,263,1.0,5.0,71,0.00,,,0.00,141,WeatherCatV1.23B16,2013-11-27 14:41:00,
2013-11-27 08:42:00,17.3,9.5,30.42,West,263,2.0,3.0,71,0.00,,,0.00,142,WeatherCatV1.23B16,2013-11-27 14:42:00,
2013-11-27 08:43:00,17.5,9.4,30.42,West,263,2.0,3.0,70,0.00,,,0.00,149,WeatherCatV1.23B16,2013-11-27 14:43:00,
2013-11-27 08:45:00,17.8,10.0,30.42,West,263,0.0,4.0,71,0.00,,,0.00,155,WeatherCatV1.23B16,2013-11-27 14:45:00,
2013-11-27 08:46:00,17.9,9.8,30.42,West,261,5.0,6.0,70,0.00,,,0.00,158,WeatherCatV1.23B16,2013-11-27 14:46:00,
2013-11-27 08:47:00,18.0,9.9,30.42,West,259,4.0,6.0,70,0.00,,,0.00,162,WeatherCatV1.23B16,2013-11-27 14:47:00,
2013-11-27 08:49:00,18.1,9.7,30.42,West,259,3.0,3.0,69,0.00,,,0.00,167,WeatherCatV1.23B16,2013-11-27 14:49:00,
2013-11-27 08:50:00,18.4,10.0,30.42,WSW,257,4.0,6.0,69,0.00,,,0.00,169,WeatherCatV1.23B16,2013-11-27 14:50:00,
2013-11-27 08:51:00,18.5,10.1,30.42,WSW,256,3.0,5.0,69,0.00,,,0.00,172,WeatherCatV1.23B16,2013-11-27 14:51:00,
2013-11-27 08:52:00,18.6,10.1,30.41,WSW,254,3.0,5.0,69,0.00,,,0.00,176,WeatherCatV1.23B16,2013-11-27 14:52:00,
2013-11-27 08:53:00,18.6,10.1,30.41,WSW,254,2.0,5.0,69,0.00,,,0.00,179,WeatherCatV1.23B16,2013-11-27 14:53:00,
2013-11-27 08:54:00,18.8,10.3,30.41,WSW,254,5.0,5.0,69,0.00,,,0.00,181,WeatherCatV1.23B16,2013-11-27 14:54:00,
2013-11-27 08:55:00,18.9,10.4,30.41,WSW,252,0.0,6.0,69,0.00,,,0.00,183,WeatherCatV1.23B16,2013-11-27 14:55:00,
2013-11-27 08:56:00,19.0,10.5,30.41,WSW,252,2.0,6.0,69,0.00,,,0.00,186,WeatherCatV1.23B16,2013-11-27 14:56:00,
2013-11-27 08:57:00,19.2,10.7,30.41,WSW,239,2.0,9.0,69,0.00,,,0.00,192,WeatherCatV1.23B16,2013-11-27 14:57:00,
2013-11-27 08:59:00,19.3,10.5,30.41,SW,236,5.0,9.0,68,0.00,,,0.00,195,WeatherCatV1.23B16,2013-11-27 14:59:00,
2013-11-27 09:00:00,19.6,10.8,30.41,SW,235,4.0,5.0,68,0.00,,,0.00,200,WeatherCatV1.23B16,2013-11-27 15:00:00,
2013-11-27 09:01:00,19.7,10.9,30.41,SW,232,5.0,8.0,68,0.00,,,0.00,204,WeatherCatV1.23B16,2013-11-27 15:01:00,
2013-11-27 09:02:00,19.7,10.6,30.41,SW,228,4.0,8.0,67,0.00,,,0.00,206,WeatherCatV1.23B16,2013-11-27 15:02:00,
2013-11-27 09:04:00,19.7,10.6,30.40,SW,226,3.0,7.0,67,0.00,,,0.00,211,WeatherCatV1.23B16,2013-11-27 15:04:00,
2013-11-27 09:05:00,19.9,10.7,30.40,SW,226,1.0,7.0,67,0.00,,,0.00,214,WeatherCatV1.23B16,2013-11-27 15:05:00,
2013-11-27 09:07:00,20.1,10.9,30.40,SW,226,2.0,2.0,67,0.00,,,0.00,220,WeatherCatV1.23B16,2013-11-27 15:07:00,
2013-11-27 09:09:00,20.6,11.4,30.40,SW,218,1.0,6.0,67,0.00,,,0.00,225,WeatherCatV1.23B16,2013-11-27 15:09:00,
2013-11-27 09:10:00,20.9,11.7,30.40,SW,218,4.0,4.0,67,0.00,,,0.00,229,WeatherCatV1.23B16,2013-11-27 15:10:00,
2013-11-27 09:12:00,21.1,11.6,30.40,SW,218,1.0,7.0,66,0.00,,,0.00,234,WeatherCatV1.23B16,2013-11-27 15:12:00,
2013-11-27 09:13:00,21.2,11.6,30.40,SW,218,0.0,7.0,66,0.00,,,0.00,237,WeatherCatV1.23B16,2013-11-27 15:13:00,
2013-11-27 09:14:00,21.3,11.7,30.40,SW,217,5.0,5.0,66,0.00,,,0.00,239,WeatherCatV1.23B16,2013-11-27 15:14:00,
2013-11-27 09:16:00,21.3,11.4,30.40,SW,217,5.0,6.0,65,0.00,,,0.00,241,WeatherCatV1.23B16,2013-11-27 15:16:00,
2013-11-27 09:17:00,21.4,11.1,30.40,SW,217,4.0,6.0,64,0.00,,,0.00,246,WeatherCatV1.23B16,2013-11-27 15:17:00,
2013-11-27 09:18:00,21.4,11.1,30.41,SW,217,3.0,6.0,64,0.00,,,0.00,248,WeatherCatV1.23B16,2013-11-27 15:18:00,
2013-11-27 09:19:00,21.4,11.1,30.40,SW,217,3.0,5.0,64,0.00,,,0.00,250,WeatherCatV1.23B16,2013-11-27 15:19:00,
2013-11-27 09:21:00,21.5,11.2,30.40,SW,217,2.0,2.0,64,0.00,,,0.00,255,WeatherCatV1.23B16,2013-11-27 15:21:00,
2013-11-27 09:22:00,21.5,11.2,30.40,SW,217,2.0,2.0,64,0.00,,,0.00,255,WeatherCatV1.23B16,2013-11-27 15:22:00,
2013-11-27 09:23:00,21.5,11.2,30.40,SW,217,2.0,2.0,64,0.00,,,0.00,255,WeatherCatV1.23B16,2013-11-27 15:23:00,
2013-11-27 09:24:00,22.5,12.5,30.40,SW,216,2.0,4.0,65,0.00,,,0.00,260,WeatherCatV1.23B16,2013-11-27 15:24:00,
2013-11-27 09:25:00,22.5,12.5,30.40,SW,216,4.0,4.0,65,0.00,,,0.00,260,WeatherCatV1.23B16,2013-11-27 15:25:00,
2013-11-27 09:27:00,22.5,11.8,30.39,South,190,5.0,7.0,63,0.00,,,0.00,265,WeatherCatV1.23B16,2013-11-27 15:27:00,
2013-11-27 09:28:00,22.5,11.8,30.39,South,190,4.0,7.0,63,0.00,,,0.00,265,WeatherCatV1.23B16,2013-11-27 15:28:00,
2013-11-27 09:29:00,22.6,11.9,30.39,South,190,5.0,12.0,63,0.00,,,0.00,267,WeatherCatV1.23B16,2013-11-27 15:29:00,
2013-11-27 09:31:00,22.7,12.0,30.39,SSW,193,4.0,11.0,63,0.00,,,0.00,271,WeatherCatV1.23B16,2013-11-27 15:31:00,
2013-11-27 09:33:00,22.7,12.0,30.39,SW,219,10.0,12.0,63,0.00,,,0.00,279,WeatherCatV1.23B16,2013-11-27 15:33:00,
2013-11-27 09:34:00,22.7,11.7,30.38,South,184,12.0,12.0,62,0.00,,,0.00,281,WeatherCatV1.23B16,2013-11-27 15:34:00,
2013-11-27 09:36:00,22.7,11.7,30.38,SSW,208,7.0,10.0,62,0.00,,,0.00,285,WeatherCatV1.23B16,2013-11-27 15:36:00,
2013-11-27 09:38:00,23.0,11.9,30.38,SSW,202,13.0,13.0,62,0.00,,,0.00,290,WeatherCatV1.23B16,2013-11-27 15:38:00,
2013-11-27 09:39:00,23.0,11.9,30.38,SSW,207,7.0,13.0,62,0.00,,,0.00,292,WeatherCatV1.23B16,2013-11-27 15:39:00,
2013-11-27 09:41:00,23.2,11.8,30.38,SW,225,15.0,15.0,61,0.00,,,0.00,297,WeatherCatV1.23B16,2013-11-27 15:41:00,
2013-11-27 09:43:00,23.2,11.4,30.39,SW,226,6.0,13.0,60,0.00,,,0.00,302,WeatherCatV1.23B16,2013-11-27 15:43:00,
2013-11-27 09:44:00,23.2,11.8,30.38,SW,223,7.0,13.0,61,0.00,,,0.00,302,WeatherCatV1.23B16,2013-11-27 15:44:00,
2013-11-27 09:46:00,23.4,12.3,30.38,SW,215,7.0,7.0,62,0.00,,,0.00,308,WeatherCatV1.23B16,2013-11-27 15:46:00,
2013-11-27 09:48:00,23.6,12.1,30.38,SSW,211,5.0,13.0,61,0.00,,,0.00,313,WeatherCatV1.23B16,2013-11-27 15:48:00,
2013-11-27 09:49:00,23.7,12.2,30.38,SSW,211,6.0,13.0,61,0.00,,,0.00,315,WeatherCatV1.23B16,2013-11-27 15:49:00,
2013-11-27 09:50:00,23.7,12.2,30.38,SW,234,4.0,18.0,61,0.00,,,0.00,316,WeatherCatV1.23B16,2013-11-27 15:50:00,
2013-11-27 09:51:00,23.8,12.0,30.39,South,181,9.0,18.0,60,0.00,,,0.00,320,WeatherCatV1.23B16,2013-11-27 15:51:00,
2013-11-27 09:53:00,24.0,12.2,30.38,SSW,210,11.0,15.0,60,0.00,,,0.00,323,WeatherCatV1.23B16,2013-11-27 15:53:00,
2013-11-27 09:54:00,24.0,12.2,30.38,South,173,6.0,14.0,60,0.00,,,0.00,327,WeatherCatV1.23B16,2013-11-27 15:54:00,
2013-11-27 09:55:00,24.0,12.2,30.38,South,176,12.0,14.0,60,0.00,,,0.00,327,WeatherCatV1.23B16,2013-11-27 15:55:00,
2013-11-27 09:57:00,24.2,12.0,30.38,SSW,210,11.0,16.0,59,0.00,,,0.00,330,WeatherCatV1.23B16,2013-11-27 15:57:00,
2013-11-27 09:58:00,24.4,12.5,30.37,South,189,10.0,10.0,60,0.00,,,0.00,334,WeatherCatV1.23B16,2013-11-27 15:58:00,
2013-11-27 10:00:00,24.6,12.7,30.37,SSW,198,5.0,10.0,60,0.00,,,0.00,338,WeatherCatV1.23B16,2013-11-27 16:00:00,
2013-11-27 10:01:00,24.8,12.9,30.37,SSW,197,2.0,6.0,60,0.00,,,0.00,339,WeatherCatV1.23B16,2013-11-27 16:01:00,
2013-11-27 10:02:00,25.0,13.1,30.37,SSW,205,7.0,12.0,60,0.00,,,0.00,343,WeatherCatV1.23B16,2013-11-27 16:02:00,
2013-11-27 10:04:00,25.2,13.3,30.37,South,178,9.0,9.0,60,0.00,,,0.00,346,WeatherCatV1.23B16,2013-11-27 16:04:00,
2013-11-27 10:05:00,25.2,12.9,30.36,SSW,207,5.0,14.0,59,0.00,,,0.00,348,WeatherCatV1.23B16,2013-11-27 16:05:00,
2013-11-27 10:06:00,25.2,12.5,30.36,South,188,8.0,16.0,58,0.00,,,0.00,350,WeatherCatV1.23B16,2013-11-27 16:06:00,
2013-11-27 10:08:00,25.2,11.7,30.36,SSW,196,10.0,15.0,56,0.00,,,0.00,353,WeatherCatV1.23B16,2013-11-27 16:08:00,
2013-11-27 10:09:00,25.1,11.6,30.36,SSE,156,5.0,15.0,56,0.00,,,0.00,357,WeatherCatV1.23B16,2013-11-27 16:09:00,
2013-11-27 10:10:00,25.1,12.0,30.36,SSW,194,12.0,15.0,57,0.00,,,0.00,359,WeatherCatV1.23B16,2013-11-27 16:10:00,
2013-11-27 10:11:00,25.1,11.6,30.36,SSW,213,5.0,13.0,56,0.00,,,0.00,362,WeatherCatV1.23B16,2013-11-27 16:11:00,
2013-11-27 10:13:00,25.4,12.3,30.36,South,177,7.0,12.0,57,0.00,,,0.00,364,WeatherCatV1.23B16,2013-11-27 16:13:00,
2013-11-27 10:14:00,25.5,12.0,30.36,South,189,15.0,15.0,56,0.00,,,0.00,367,WeatherCatV1.23B16,2013-11-27 16:14:00,
2013-11-27 10:15:00,25.6,12.1,30.36,South,177,4.0,15.0,56,0.00,,,0.00,369,WeatherCatV1.23B16,2013-11-27 16:15:00,
2013-11-27 10:16:00,25.6,11.7,30.37,SSW,207,6.0,15.0,55,0.00,,,0.00,371,WeatherCatV1.23B16,2013-11-27 16:16:00,
2013-11-27 10:18:00,25.8,11.9,30.37,SSW,192,17.0,17.0,55,0.00,,,0.00,374,WeatherCatV1.23B16,2013-11-27 16:18:00,
2013-11-27 10:19:00,25.9,12.0,30.37,SSW,209,14.0,17.0,55,0.00,,,0.00,376,WeatherCatV1.23B16,2013-11-27 16:19:00,
2013-11-27 10:20:00,25.8,11.9,30.36,WSW,238,13.0,17.0,55,0.00,,,0.00,378,WeatherCatV1.23B16,2013-11-27 16:20:00,
2013-11-27 10:21:00,25.7,11.4,30.36,South,179,11.0,16.0,54,0.00,,,0.00,380,WeatherCatV1.23B16,2013-11-27 16:21:00,
2013-11-27 10:24:00,25.8,11.1,30.36,SW,214,13.0,16.0,53,0.00,,,0.00,381,WeatherCatV1.23B16,2013-11-27 16:24:00,
2013-11-27 10:25:00,25.8,11.1,30.36,SSW,209,10.0,16.0,53,0.00,,,0.00,388,WeatherCatV1.23B16,2013-11-27 16:25:00,
2013-11-27 10:27:00,26.0,11.7,30.36,WSW,238,6.0,16.0,54,0.00,,,0.00,390,WeatherCatV1.23B16,2013-11-27 16:27:00,
2013-11-27 10:30:00,26.3,11.9,30.35,SSW,209,4.0,19.0,54,0.00,,,0.00,396,WeatherCatV1.23B16,2013-11-27 16:30:00,
2013-11-27 10:32:00,26.5,12.1,30.35,SSW,207,6.0,12.0,54,0.00,,,0.00,399,WeatherCatV1.23B16,2013-11-27 16:32:00,
2013-11-27 10:35:00,26.7,11.9,30.35,South,175,13.0,13.0,53,0.00,,,0.00,406,WeatherCatV1.23B16,2013-11-27 16:35:00,
2013-11-27 10:37:00,26.8,11.6,30.35,SSW,207,6.0,17.0,52,0.00,,,0.00,408,WeatherCatV1.23B16,2013-11-27 16:37:00,
2013-11-27 10:38:00,26.8,12.0,30.35,South,191,10.0,17.0,53,0.00,,,0.00,406,WeatherCatV1.23B16,2013-11-27 16:38:00,
2013-11-27 10:40:00,27.1,12.3,30.35,South,170,6.0,14.0,53,0.00,,,0.00,411,WeatherCatV1.23B16,2013-11-27 16:40:00,
2013-11-27 10:41:00,27.2,12.4,30.35,SSW,210,5.0,8.0,53,0.00,,,0.00,413,WeatherCatV1.23B16,2013-11-27 16:41:00,
2013-11-27 10:42:00,27.4,13.0,30.34,SW,214,5.0,10.0,54,0.00,,,0.00,415,WeatherCatV1.23B16,2013-11-27 16:42:00,
2013-11-27 10:43:00,27.6,12.7,30.34,SW,221,4.0,16.0,53,0.00,,,0.00,418,WeatherCatV1.23B16,2013-11-27 16:43:00,
2013-11-27 10:45:00,27.8,13.3,30.34,SSW,211,3.0,13.0,54,0.00,,,0.00,420,WeatherCatV1.23B16,2013-11-27 16:45:00,
2013-11-27 10:46:00,27.9,13.0,30.34,SW,222,10.0,13.0,53,0.00,,,0.00,420,WeatherCatV1.23B16,2013-11-27 16:46:00,
2013-11-27 10:47:00,28.0,13.1,30.34,South,186,3.0,12.0,53,0.00,,,0.00,424,WeatherCatV1.23B16,2013-11-27 16:47:00,
2013-11-27 10:49:00,27.9,12.6,30.34,SSW,201,13.0,16.0,52,0.00,,,0.00,425,WeatherCatV1.23B16,2013-11-27 16:49:00,
2013-11-27 10:50:00,27.7,12.4,30.34,SSW,194,11.0,15.0,52,0.00,,,0.00,422,WeatherCatV1.23B16,2013-11-27 16:50:00,
2013-11-27 10:51:00,27.7,12.4,30.34,SSW,211,5.0,15.0,52,0.00,,,0.00,429,WeatherCatV1.23B16,2013-11-27 16:51:00,
2013-11-27 10:52:00,27.7,12.4,30.34,SSW,210,9.0,17.0,52,0.00,,,0.00,427,WeatherCatV1.23B16,2013-11-27 16:52:00,
2013-11-27 10:54:00,27.7,12.4,30.34,SSW,210,6.0,17.0,52,0.00,,,0.00,432,WeatherCatV1.23B16,2013-11-27 16:54:00,
2013-11-27 10:55:00,27.7,12.4,30.34,SW,234,13.0,21.0,52,0.00,,,0.00,436,WeatherCatV1.23B16,2013-11-27 16:55:00,
2013-11-27 10:56:00,27.7,12.4,30.34,SSW,210,12.0,21.0,52,0.00,,,0.00,436,WeatherCatV1.23B16,2013-11-27 16:56:00,
2013-11-27 10:57:00,27.6,12.7,30.34,SSW,201,10.0,21.0,53,0.00,,,0.00,436,WeatherCatV1.23B16,2013-11-27 16:57:00,
2013-11-27 10:59:00,27.9,13.0,30.34,SSW,198,4.0,13.0,53,0.00,,,0.00,439,WeatherCatV1.23B16,2013-11-27 16:59:00,
2013-11-27 11:01:00,28.3,13.4,30.34,SSW,193,10.0,15.0,53,0.00,,,0.00,441,WeatherCatV1.23B16,2013-11-27 17:01:00,
2013-11-27 11:03:00,28.3,12.9,30.33,South,176,12.0,15.0,52,0.00,,,0.00,443,WeatherCatV1.23B16,2013-11-27 17:03:00,
2013-11-27 11:04:00,28.4,13.1,30.33,South,180,7.0,19.0,52,0.00,,,0.00,446,WeatherCatV1.23B16,2013-11-27 17:04:00,
2013-11-27 11:06:00,28.5,13.1,30.33,WSW,241,10.0,16.0,52,0.00,,,0.00,448,WeatherCatV1.23B16,2013-11-27 17:06:00,
2013-11-27 11:08:00,28.7,13.3,30.33,SSW,196,7.0,14.0,52,0.00,,,0.00,452,WeatherCatV1.23B16,2013-11-27 17:08:00,
2013-11-27 11:09:00,28.9,13.5,30.33,SSW,207,7.0,9.0,52,0.00,,,0.00,454,WeatherCatV1.23B16,2013-11-27 17:09:00,
2013-11-27 11:11:00,29.0,13.2,30.33,SW,214,11.0,18.0,51,0.00,,,0.00,455,WeatherCatV1.23B16,2013-11-27 17:11:00,
2013-11-27 11:12:00,29.1,13.3,30.33,SSW,196,7.0,11.0,51,0.00,,,0.00,457,WeatherCatV1.23B16,2013-11-27 17:12:00,
2013-11-27 11:13:00,29.2,13.8,30.33,SSW,196,5.0,11.0,52,0.00,,,0.00,457,WeatherCatV1.23B16,2013-11-27 17:13:00,
2013-11-27 11:15:00,29.5,13.6,30.33,SSW,204,3.0,14.0,51,0.00,,,0.00,461,WeatherCatV1.23B16,2013-11-27 17:15:00,
2013-11-27 11:16:00,29.7,13.8,30.33,SSW,198,11.0,14.0,51,0.00,,,0.00,446,WeatherCatV1.23B16,2013-11-27 17:16:00,
2013-11-27 11:17:00,29.8,13.9,30.32,SSW,211,9.0,11.0,51,0.00,,,0.00,461,WeatherCatV1.23B16,2013-11-27 17:17:00,
2013-11-27 11:18:00,29.8,13.9,30.32,South,188,2.0,16.0,51,0.00,,,0.00,461,WeatherCatV1.23B16,2013-11-27 17:18:00,
2013-11-27 11:21:00,29.9,13.6,30.32,SW,221,10.0,19.0,50,0.00,,,0.00,466,WeatherCatV1.23B16,2013-11-27 17:21:00,
2013-11-27 11:22:00,29.9,13.6,30.32,WSW,240,7.0,15.0,50,0.00,,,0.00,455,WeatherCatV1.23B16,2013-11-27 17:22:00,
2013-11-27 11:23:00,30.1,13.7,30.32,South,190,6.0,11.0,50,0.00,,,0.00,468,WeatherCatV1.23B16,2013-11-27 17:23:00,
2013-11-27 11:24:00,30.1,13.7,30.32,South,190,4.0,11.0,50,0.00,,,0.00,468,WeatherCatV1.23B16,2013-11-27 17:24:00,
2013-11-27 11:26:00,30.2,13.4,30.31,SW,216,5.0,19.0,49,0.00,,,0.00,471,WeatherCatV1.23B16,2013-11-27 17:26:00,
2013-11-27 11:27:00,30.3,13.5,30.31,SSW,204,10.0,19.0,49,0.00,,,0.00,471,WeatherCatV1.23B16,2013-11-27 17:27:00,
2013-11-27 11:28:00,30.3,13.9,30.31,SSE,167,14.0,14.0,50,0.00,,,0.00,471,WeatherCatV1.23B16,2013-11-27 17:28:00,
2013-11-27 11:29:00,30.5,13.6,30.31,SSW,205,8.0,20.0,49,0.00,,,0.00,471,WeatherCatV1.23B16,2013-11-27 17:29:00,
2013-11-27 11:31:00,30.5,13.6,30.30,SW,223,10.0,19.0,49,0.00,,,0.00,473,WeatherCatV1.23B16,2013-11-27 17:31:00,
2013-11-27 11:32:00,30.5,13.6,30.30,SW,221,6.0,19.0,49,0.00,,,0.00,475,WeatherCatV1.23B16,2013-11-27 17:32:00,
2013-11-27 11:33:00,30.6,13.7,30.30,SW,222,10.0,14.0,49,0.00,,,0.00,475,WeatherCatV1.23B16,2013-11-27 17:33:00,
2013-11-27 11:34:00,30.7,13.8,30.30,SSW,209,16.0,16.0,49,0.00,,,0.00,476,WeatherCatV1.23B16,2013-11-27 17:34:00,
2013-11-27 11:37:00,30.8,13.4,30.30,South,187,16.0,18.0,48,0.00,,,0.00,476,WeatherCatV1.23B16,2013-11-27 17:37:00,
2013-11-27 11:38:00,30.7,13.4,30.30,SSW,206,10.0,16.0,48,0.00,,,0.00,478,WeatherCatV1.23B16,2013-11-27 17:38:00,
2013-11-27 11:40:00,30.9,14.0,30.30,SSW,198,4.0,15.0,49,0.00,,,0.00,480,WeatherCatV1.23B16,2013-11-27 17:40:00,
2013-11-27 11:42:00,31.3,14.4,30.29,South,173,9.0,14.0,49,0.00,,,0.00,480,WeatherCatV1.23B16,2013-11-27 17:42:00,
2013-11-27 11:43:00,31.5,14.6,30.29,South,179,9.0,16.0,49,0.00,,,0.00,482,WeatherCatV1.23B16,2013-11-27 17:43:00,
2013-11-27 11:45:00,31.5,14.1,30.29,WSW,245,12.0,16.0,48,0.00,,,0.00,482,WeatherCatV1.23B16,2013-11-27 17:45:00,
2013-11-27 11:47:00,31.4,14.0,30.29,SW,217,15.0,18.0,48,0.00,,,0.00,483,WeatherCatV1.23B16,2013-11-27 17:47:00,
2013-11-27 11:48:00,31.3,13.9,30.28,SSW,202,10.0,15.0,48,0.00,,,0.00,483,WeatherCatV1.23B16,2013-11-27 17:48:00,
2013-11-27 11:50:00,31.5,14.6,30.28,South,191,10.0,14.0,49,0.00,,,0.00,483,WeatherCatV1.23B16,2013-11-27 17:50:00,
2013-11-27 11:52:00,31.8,14.4,30.27,SSW,196,6.0,15.0,48,0.00,,,0.00,487,WeatherCatV1.23B16,2013-11-27 17:52:00,
2013-11-27 11:53:00,31.9,14.5,30.28,SSE,168,10.0,15.0,48,0.00,,,0.00,487,WeatherCatV1.23B16,2013-11-27 17:53:00,
2013-11-27 11:54:00,31.9,14.5,30.27,SSW,192,2.0,18.0,48,0.00,,,0.00,487,WeatherCatV1.23B16,2013-11-27 17:54:00,
2013-11-27 11:55:00,32.1,14.6,30.27,SSE,160,10.0,11.0,48,0.00,,,0.00,487,WeatherCatV1.23B16,2013-11-27 17:55:00,
2013-11-27 11:57:00,32.2,14.7,30.27,SSE,166,4.0,16.0,48,0.00,,,0.00,489,WeatherCatV1.23B16,2013-11-27 17:57:00,
2013-11-27 11:58:00,32.3,15.3,30.27,SSW,192,10.0,14.0,49,0.00,,,0.00,489,WeatherCatV1.23B16,2013-11-27 17:58:00,
2013-11-27 11:59:00,32.4,14.9,30.27,SSW,210,15.0,18.0,48,0.00,,,0.00,489,WeatherCatV1.23B16,2013-11-27 17:59:00,
2013-11-27 12:00:00,32.3,14.8,30.27,SSW,213,19.0,19.0,48,0.00,,,0.00,489,WeatherCatV1.23B16,2013-11-27 18:00:00,
2013-11-27 12:01:00,32.3,14.4,30.27,South,186,8.0,19.0,47,0.00,,,0.00,489,WeatherCatV1.23B16,2013-11-27 18:01:00,
2013-11-27 12:02:00,32.3,14.8,30.27,SSW,210,10.0,16.0,48,0.00,,,0.00,490,WeatherCatV1.23B16,2013-11-27 18:02:00,
2013-11-27 12:03:00,32.4,14.9,30.27,SW,218,11.0,17.0,48,0.00,,,0.00,490,WeatherCatV1.23B16,2013-11-27 18:03:00,
2013-11-27 12:04:00,32.5,15.0,30.26,SW,221,14.0,18.0,48,0.00,,,0.00,492,WeatherCatV1.23B16,2013-11-27 18:04:00,
2013-11-27 12:05:00,32.4,14.4,30.26,SSW,207,6.0,18.0,47,0.00,,,0.00,490,WeatherCatV1.23B16,2013-11-27 18:05:00,
2013-11-27 12:06:00,32.4,14.4,30.26,SSE,167,17.0,17.0,47,0.00,,,0.00,492,WeatherCatV1.23B16,2013-11-27 18:06:00,
2013-11-27 12:07:00,32.4,14.4,30.26,South,190,10.0,21.0,47,0.00,,,0.00,492,WeatherCatV1.23B16,2013-11-27 18:07:00,
2013-11-27 12:08:00,32.5,15.0,30.26,SSW,194,13.0,21.0,48,0.00,,,0.00,492,WeatherCatV1.23B16,2013-11-27 18:08:00,
2013-11-27 12:09:00,32.5,15.0,30.26,SSW,207,13.0,21.0,48,0.00,,,0.00,492,WeatherCatV1.23B16,2013-11-27 18:09:00,
2013-11-27 12:10:00,32.6,14.6,30.26,South,188,19.0,19.0,47,0.00,,,0.00,492,WeatherCatV1.23B16,2013-11-27 18:10:00,
2013-11-27 12:11:00,32.7,14.7,30.26,SW,219,11.0,19.0,47,0.00,,,0.00,492,WeatherCatV1.23B16,2013-11-27 18:11:00,
2013-11-27 12:13:00,32.8,15.3,30.26,SSW,199,10.0,12.0,48,0.00,,,0.00,492,WeatherCatV1.23B16,2013-11-27 18:13:00,
2013-11-27 12:14:00,33.1,15.6,30.26,SW,227,4.0,16.0,48,0.00,,,0.00,492,WeatherCatV1.23B16,2013-11-27 18:14:00,
2013-11-27 12:16:00,33.4,15.4,30.26,SW,232,9.0,18.0,47,0.00,,,0.00,492,WeatherCatV1.23B16,2013-11-27 18:16:00,
2013-11-27 12:18:00,33.6,15.6,30.25,South,177,6.0,20.0,47,0.00,,,0.00,492,WeatherCatV1.23B16,2013-11-27 18:18:00,
2013-11-27 12:19:00,33.6,15.6,30.25,South,183,10.0,20.0,47,0.00,,,0.00,494,WeatherCatV1.23B16,2013-11-27 18:19:00,
2013-11-27 12:21:00,33.8,15.7,30.25,SSW,198,7.0,13.0,47,0.00,,,0.00,494,WeatherCatV1.23B16,2013-11-27 18:21:00,
2013-11-27 12:22:00,34.0,15.9,30.25,South,179,9.0,13.0,47,0.00,,,0.00,494,WeatherCatV1.23B16,2013-11-27 18:22:00,
2013-11-27 12:23:00,34.1,16.0,30.25,SW,222,12.0,18.0,47,0.00,,,0.00,492,WeatherCatV1.23B16,2013-11-27 18:23:00,
2013-11-27 12:24:00,34.0,15.4,30.25,SW,222,12.0,18.0,46,0.00,,,0.00,492,WeatherCatV1.23B16,2013-11-27 18:24:00,
2013-11-27 12:26:00,34.4,16.8,30.25,South,175,7.0,24.0,48,0.00,,,0.00,494,WeatherCatV1.23B16,2013-11-27 18:26:00,
2013-11-27 12:27:00,34.4,15.8,30.25,SW,236,15.0,24.0,46,0.00,,,0.00,492,WeatherCatV1.23B16,2013-11-27 18:27:00,
2013-11-27 12:28:00,34.4,15.8,30.24,South,176,20.0,24.0,46,0.00,,,0.00,492,WeatherCatV1.23B16,2013-11-27 18:28:00,
2013-11-27 12:29:00,34.3,15.7,30.24,South,175,12.0,16.0,46,0.00,,,0.00,492,WeatherCatV1.23B16,2013-11-27 18:29:00,
2013-11-27 12:32:00,34.3,15.7,30.24,SSW,203,16.0,16.0,46,0.00,,,0.00,494,WeatherCatV1.23B16,2013-11-27 18:32:00,
2013-11-27 12:33:00,34.3,15.7,30.24,SSE,159,5.0,19.0,46,0.00,,,0.00,492,WeatherCatV1.23B16,2013-11-27 18:33:00,
2013-11-27 12:34:00,34.2,15.6,30.24,SW,217,8.0,18.0,46,0.00,,,0.00,492,WeatherCatV1.23B16,2013-11-27 18:34:00,
2013-11-27 12:35:00,34.1,15.5,30.23,SSW,211,10.0,18.0,46,0.00,,,0.00,492,WeatherCatV1.23B16,2013-11-27 18:35:00,
2013-11-27 12:38:00,34.4,15.8,30.23,SSE,164,12.0,17.0,46,0.00,,,0.00,492,WeatherCatV1.23B16,2013-11-27 18:38:00,
2013-11-27 12:40:00,34.7,16.1,30.23,South,186,13.0,13.0,46,0.00,,,0.00,490,WeatherCatV1.23B16,2013-11-27 18:40:00,
2013-11-27 12:43:00,35.2,18.0,30.22,SSW,211,2.0,12.0,49,0.00,,,0.00,490,WeatherCatV1.23B16,2013-11-27 18:43:00,
2013-11-27 12:44:00,35.5,16.8,30.23,South,191,12.0,12.0,46,0.00,,,0.00,490,WeatherCatV1.23B16,2013-11-27 18:44:00,
2013-11-27 12:45:00,35.6,15.9,30.22,SSW,192,9.0,21.0,44,0.00,,,0.00,490,WeatherCatV1.23B16,2013-11-27 18:45:00,
2013-11-27 12:48:00,35.8,16.0,30.22,SSW,196,9.0,19.0,44,0.00,,,0.00,489,WeatherCatV1.23B16,2013-11-27 18:48:00,
2013-11-27 12:49:00,35.7,15.9,30.22,SSW,210,6.0,19.0,44,0.00,,,0.00,490,WeatherCatV1.23B16,2013-11-27 18:49:00,
2013-11-27 12:50:00,35.8,16.0,30.22,SW,222,10.0,19.0,44,0.00,,,0.00,485,WeatherCatV1.23B16,2013-11-27 18:50:00,
2013-11-27 12:53:00,35.6,15.9,30.22,SSW,209,15.0,22.0,44,0.00,,,0.00,485,WeatherCatV1.23B16,2013-11-27 18:53:00,
2013-11-27 12:54:00,35.6,15.9,30.22,SSW,207,14.0,18.0,44,0.00,,,0.00,485,WeatherCatV1.23B16,2013-11-27 18:54:00,
2013-11-27 12:55:00,35.6,15.9,30.22,SSW,192,11.0,20.0,44,0.00,,,0.00,485,WeatherCatV1.23B16,2013-11-27 18:55:00,
2013-11-27 12:56:00,35.5,15.8,30.21,SSW,202,10.0,20.0,44,0.00,,,0.00,485,WeatherCatV1.23B16,2013-11-27 18:56:00,
2013-11-27 12:58:00,35.6,15.9,30.21,SSW,196,8.0,22.0,44,0.00,,,0.00,485,WeatherCatV1.23B16,2013-11-27 18:58:00,
2013-11-27 12:59:00,35.6,15.9,30.20,South,182,16.0,22.0,44,0.00,,,0.00,485,WeatherCatV1.23B16,2013-11-27 18:59:00,
2013-11-27 13:00:00,35.6,15.9,30.20,SW,220,7.0,22.0,44,0.00,,,0.00,485,WeatherCatV1.23B16,2013-11-27 19:00:00,
2013-11-27 13:01:00,35.6,15.9,30.21,SSW,202,14.0,17.0,44,0.00,,,0.00,485,WeatherCatV1.23B16,2013-11-27 19:01:00,
2013-11-27 13:03:00,36.1,16.3,30.21,SSW,196,17.0,17.0,44,0.00,,,0.00,480,WeatherCatV1.23B16,2013-11-27 19:03:00,
2013-11-27 13:05:00,36.1,16.3,30.20,SSW,192,9.0,19.0,44,0.00,,,0.00,480,WeatherCatV1.23B16,2013-11-27 19:05:00,
2013-11-27 13:06:00,36.0,15.7,30.20,SSW,209,8.0,19.0,43,0.00,,,0.00,475,WeatherCatV1.23B16,2013-11-27 19:06:00,
2013-11-27 13:07:00,36.1,16.3,30.20,SSW,200,15.0,15.0,44,0.00,,,0.00,480,WeatherCatV1.23B16,2013-11-27 19:07:00,
2013-11-27 13:08:00,36.2,16.4,30.20,SSW,213,3.0,16.0,44,0.00,,,0.00,471,WeatherCatV1.23B16,2013-11-27 19:08:00,
2013-11-27 13:10:00,36.5,16.7,30.20,SSW,209,15.0,15.0,44,0.00,,,0.00,476,WeatherCatV1.23B16,2013-11-27 19:10:00,
2013-11-27 13:11:00,36.5,16.7,30.20,SW,236,12.0,16.0,44,0.00,,,0.00,476,WeatherCatV1.23B16,2013-11-27 19:11:00,
2013-11-27 13:12:00,36.5,16.7,30.20,SSW,198,9.0,22.0,44,0.00,,,0.00,476,WeatherCatV1.23B16,2013-11-27 19:12:00,
2013-11-27 13:14:00,36.6,16.8,30.20,SSW,199,8.0,16.0,44,0.00,,,0.00,475,WeatherCatV1.23B16,2013-11-27 19:14:00,
2013-11-27 13:15:00,36.7,16.3,30.20,SSW,196,10.0,15.0,43,0.00,,,0.00,473,WeatherCatV1.23B16,2013-11-27 19:15:00,
2013-11-27 13:16:00,36.7,16.3,30.20,SW,222,12.0,15.0,43,0.00,,,0.00,473,WeatherCatV1.23B16,2013-11-27 19:16:00,
2013-11-27 13:17:00,36.7,16.3,30.19,SSW,198,17.0,17.0,43,0.00,,,0.00,473,WeatherCatV1.23B16,2013-11-27 19:17:00,
2013-11-27 13:19:00,36.6,16.2,30.19,SSW,209,12.0,21.0,43,0.00,,,0.00,471,WeatherCatV1.23B16,2013-11-27 19:19:00,
2013-11-27 13:21:00,36.6,16.8,30.19,SW,220,20.0,20.0,44,0.00,,,0.00,469,WeatherCatV1.23B16,2013-11-27 19:21:00,
2013-11-27 13:22:00,36.8,17.0,30.19,South,189,5.0,20.0,44,0.00,,,0.00,469,WeatherCatV1.23B16,2013-11-27 19:22:00,
2013-11-27 13:24:00,37.0,16.6,30.19,SSW,211,18.0,26.0,43,0.00,,,0.00,461,WeatherCatV1.23B16,2013-11-27 19:24:00,
2013-11-27 13:26:00,37.0,17.1,30.19,SSW,200,7.0,15.0,44,0.00,,,0.00,464,WeatherCatV1.23B16,2013-11-27 19:26:00,
2013-11-27 13:27:00,37.1,17.2,30.19,South,169,12.0,15.0,44,0.00,,,0.00,464,WeatherCatV1.23B16,2013-11-27 19:27:00,
2013-11-27 13:29:00,37.5,17.6,30.19,SSW,202,15.0,15.0,44,0.00,,,0.00,461,WeatherCatV1.23B16,2013-11-27 19:29:00,
2013-11-27 13:31:00,37.6,17.1,30.19,South,191,3.0,21.0,43,0.00,,,0.00,461,WeatherCatV1.23B16,2013-11-27 19:31:00,
2013-11-27 13:32:00,37.6,17.7,30.19,SSW,195,6.0,21.0,44,0.00,,,0.00,461,WeatherCatV1.23B16,2013-11-27 19:32:00,
2013-11-27 13:34:00,38.0,17.5,30.19,SW,219,10.0,15.0,43,0.00,,,0.00,454,WeatherCatV1.23B16,2013-11-27 19:34:00,
2013-11-27 13:36:00,38.1,17.1,30.19,SSW,198,7.0,21.0,42,0.00,,,0.00,450,WeatherCatV1.23B16,2013-11-27 19:36:00,
2013-11-27 13:37:00,38.1,17.1,30.19,SSW,203,7.0,21.0,42,0.00,,,0.00,450,WeatherCatV1.23B16,2013-11-27 19:37:00,
2013-11-27 13:39:00,38.2,17.1,30.18,South,172,7.0,18.0,42,0.00,,,0.00,445,WeatherCatV1.23B16,2013-11-27 19:39:00,
2013-11-27 13:41:00,38.3,17.8,30.18,SW,233,10.0,13.0,43,0.00,,,0.00,446,WeatherCatV1.23B16,2013-11-27 19:41:00,
2013-11-27 13:42:00,38.4,17.9,30.18,SW,231,5.0,14.0,43,0.00,,,0.00,446,WeatherCatV1.23B16,2013-11-27 19:42:00,
2013-11-27 13:44:00,38.6,18.1,30.18,SSW,204,8.0,20.0,43,0.00,,,0.00,443,WeatherCatV1.23B16,2013-11-27 19:44:00,
2013-11-27 13:47:00,38.8,18.2,30.18,SSW,206,4.0,19.0,43,0.00,,,0.00,439,WeatherCatV1.23B16,2013-11-27 19:47:00,
2013-11-27 13:48:00,38.9,18.3,30.18,SSW,206,6.0,19.0,43,0.00,,,0.00,439,WeatherCatV1.23B16,2013-11-27 19:48:00,
2013-11-27 13:50:00,38.9,17.8,30.18,SW,223,22.0,22.0,42,0.00,,,0.00,436,WeatherCatV1.23B16,2013-11-27 19:50:00,
2013-11-27 13:52:00,38.8,17.7,30.17,SSW,213,11.0,27.0,42,0.00,,,0.00,434,WeatherCatV1.23B16,2013-11-27 19:52:00,
2013-11-27 13:53:00,38.8,17.7,30.17,SSW,207,15.0,17.0,42,0.00,,,0.00,432,WeatherCatV1.23B16,2013-11-27 19:53:00,
2013-11-27 13:55:00,39.1,18.5,30.17,SSW,200,6.0,17.0,43,0.00,,,0.00,427,WeatherCatV1.23B16,2013-11-27 19:55:00,
2013-11-27 13:57:00,39.5,18.9,30.17,SSW,200,3.0,12.0,43,0.00,,,0.00,424,WeatherCatV1.23B16,2013-11-27 19:57:00,
2013-11-27 13:58:00,39.6,19.0,30.17,South,188,6.0,12.0,43,0.00,,,0.00,424,WeatherCatV1.23B16,2013-11-27 19:58:00,
2013-11-27 14:00:00,39.8,19.1,30.17,South,184,17.0,18.0,43,0.00,,,0.00,422,WeatherCatV1.23B16,2013-11-27 20:00:00,
2013-11-27 14:03:00,39.6,19.0,30.17,SSW,203,19.0,19.0,43,0.00,,,0.00,418,WeatherCatV1.23B16,2013-11-27 20:03:00,
2013-11-27 14:06:00,39.7,19.1,30.17,SW,233,5.0,14.0,43,0.00,,,0.00,410,WeatherCatV1.23B16,2013-11-27 20:06:00,
2013-11-27 14:08:00,39.9,19.2,30.16,SW,220,6.0,16.0,43,0.00,,,0.00,408,WeatherCatV1.23B16,2013-11-27 20:08:00,
2013-11-27 14:09:00,40.0,19.3,30.16,SSW,211,11.0,13.0,43,0.00,,,0.00,403,WeatherCatV1.23B16,2013-11-27 20:09:00,
2013-11-27 14:11:00,40.2,19.5,30.16,SSW,211,10.0,12.0,43,0.00,,,0.00,403,WeatherCatV1.23B16,2013-11-27 20:11:00,
2013-11-27 14:13:00,40.2,19.5,30.16,SW,227,9.0,17.0,43,0.00,,,0.00,390,WeatherCatV1.23B16,2013-11-27 20:13:00,
2013-11-27 14:14:00,40.2,19.5,30.16,SW,227,11.0,23.0,43,0.00,,,0.00,390,WeatherCatV1.23B16,2013-11-27 20:14:00,
2013-11-27 14:16:00,40.2,19.5,30.15,SW,218,11.0,15.0,43,0.00,,,0.00,392,WeatherCatV1.23B16,2013-11-27 20:16:00,
2013-11-27 14:18:00,40.3,19.6,30.15,South,191,5.0,15.0,43,0.00,,,0.00,394,WeatherCatV1.23B16,2013-11-27 20:18:00,
2013-11-27 14:19:00,40.4,19.7,30.15,WSW,237,8.0,15.0,43,0.00,,,0.00,392,WeatherCatV1.23B16,2013-11-27 20:19:00,
2013-11-27 14:20:00,40.5,19.8,30.15,South,191,16.0,16.0,43,0.00,,,0.00,392,WeatherCatV1.23B16,2013-11-27 20:20:00,
2013-11-27 14:21:00,40.5,19.8,30.15,SSW,212,2.0,16.0,43,0.00,,,0.00,385,WeatherCatV1.23B16,2013-11-27 20:21:00,
2013-11-27 14:23:00,40.8,20.1,30.15,SW,227,10.0,13.0,43,0.00,,,0.00,374,WeatherCatV1.23B16,2013-11-27 20:23:00,
2013-11-27 14:24:00,40.9,20.1,30.15,South,191,10.0,13.0,43,0.00,,,0.00,378,WeatherCatV1.23B16,2013-11-27 20:24:00,
2013-11-27 14:25:00,40.9,20.1,30.15,SSW,196,11.0,13.0,43,0.00,,,0.00,383,WeatherCatV1.23B16,2013-11-27 20:25:00,
2013-11-27 14:26:00,41.0,19.7,30.15,SW,223,4.0,15.0,42,0.00,,,0.00,381,WeatherCatV1.23B16,2013-11-27 20:26:00,
2013-11-27 14:28:00,40.9,19.6,30.15,SW,229,19.0,23.0,42,0.00,,,0.00,387,WeatherCatV1.23B16,2013-11-27 20:28:00,
2013-11-27 14:29:00,40.8,19.5,30.15,SSW,211,14.0,23.0,42,0.00,,,0.00,390,WeatherCatV1.23B16,2013-11-27 20:29:00,
2013-11-27 14:30:00,40.8,19.5,30.15,SSE,166,12.0,20.0,42,0.00,,,0.00,394,WeatherCatV1.23B16,2013-11-27 20:30:00,
2013-11-27 14:31:00,40.8,19.5,30.15,SW,223,10.0,16.0,42,0.00,,,0.00,394,WeatherCatV1.23B16,2013-11-27 20:31:00,
2013-11-27 14:33:00,40.9,19.6,30.15,SSW,192,5.0,19.0,42,0.00,,,0.00,411,WeatherCatV1.23B16,2013-11-27 20:33:00,
2013-11-27 14:34:00,41.0,21.3,30.15,SW,223,13.0,19.0,45,0.00,,,0.00,420,WeatherCatV1.23B16,2013-11-27 20:34:00,
2013-11-27 14:36:00,41.1,19.8,30.14,SW,218,5.0,20.0,42,0.00,,,0.00,403,WeatherCatV1.23B16,2013-11-27 20:36:00,
2013-11-27 14:39:00,41.2,19.9,30.14,SW,223,7.0,12.0,42,0.00,,,0.00,369,WeatherCatV1.23B16,2013-11-27 20:39:00,
2013-11-27 14:40:00,41.3,20.0,30.14,SW,229,9.0,13.0,42,0.00,,,0.00,367,WeatherCatV1.23B16,2013-11-27 20:40:00,
2013-11-27 14:41:00,41.2,19.3,30.14,South,172,10.0,18.0,41,0.00,,,0.00,348,WeatherCatV1.23B16,2013-11-27 20:41:00,
2013-11-27 14:44:00,41.2,19.9,30.14,SW,215,12.0,15.0,42,0.00,,,0.00,350,WeatherCatV1.23B16,2013-11-27 20:44:00,
2013-11-27 14:45:00,41.3,20.0,30.14,SSW,199,7.0,14.0,42,0.00,,,0.00,346,WeatherCatV1.23B16,2013-11-27 20:45:00,
2013-11-27 14:46:00,41.5,20.1,30.14,SW,218,5.0,21.0,42,0.00,,,0.00,345,WeatherCatV1.23B16,2013-11-27 20:46:00,
2013-11-27 14:47:00,41.5,20.1,30.14,SW,230,9.0,21.0,42,0.00,,,0.00,345,WeatherCatV1.23B16,2013-11-27 20:47:00,
2013-11-27 14:49:00,41.4,19.5,30.13,SSW,209,9.0,21.0,41,0.00,,,0.00,339,WeatherCatV1.23B16,2013-11-27 20:49:00,
2013-11-27 14:50:00,41.4,20.0,30.13,SSW,196,4.0,21.0,42,0.00,,,0.00,338,WeatherCatV1.23B16,2013-11-27 20:50:00,
2013-11-27 14:52:00,41.7,20.3,30.13,South,176,13.0,13.0,42,0.00,,,0.00,332,WeatherCatV1.23B16,2013-11-27 20:52:00,
2013-11-27 14:54:00,41.9,20.5,30.13,SSW,197,5.0,14.0,42,0.00,,,0.00,320,WeatherCatV1.23B16,2013-11-27 20:54:00,
2013-11-27 14:55:00,41.9,19.9,30.13,South,184,9.0,21.0,41,0.00,,,0.00,325,WeatherCatV1.23B16,2013-11-27 20:55:00,
2013-11-27 14:57:00,41.7,19.8,30.13,South,190,10.0,16.0,41,0.00,,,0.00,311,WeatherCatV1.23B16,2013-11-27 20:57:00,
2013-11-27 14:59:00,41.6,20.2,30.13,SW,227,11.0,20.0,42,0.00,,,0.00,306,WeatherCatV1.23B16,2013-11-27 20:59:00,
2013-11-27 15:00:00,41.5,19.6,30.13,SW,222,8.0,20.0,41,0.00,,,0.00,309,WeatherCatV1.23B16,2013-11-27 21:00:00,
2013-11-27 15:02:00,41.5,20.1,30.13,SSW,211,17.0,17.0,42,0.00,,,0.00,304,WeatherCatV1.23B16,2013-11-27 21:02:00,
2013-11-27 15:04:00,41.5,20.1,30.13,SSW,209,7.0,18.0,42,0.00,,,0.00,299,WeatherCatV1.23B16,2013-11-27 21:04:00,
2013-11-27 15:05:00,41.5,20.1,30.13,SSW,206,12.0,24.0,42,0.00,,,0.00,295,WeatherCatV1.23B16,2013-11-27 21:05:00,
2013-11-27 15:07:00,41.5,20.1,30.13,SW,215,9.0,16.0,42,0.00,,,0.00,292,WeatherCatV1.23B16,2013-11-27 21:07:00,
2013-11-27 15:09:00,41.6,20.2,30.12,South,184,3.0,9.0,42,0.00,,,0.00,285,WeatherCatV1.23B16,2013-11-27 21:09:00,
2013-11-27 15:11:00,41.6,20.2,30.12,South,174,7.0,19.0,42,0.00,,,0.00,279,WeatherCatV1.23B16,2013-11-27 21:11:00,
2013-11-27 15:12:00,41.7,20.3,30.12,SSE,167,10.0,18.0,42,0.00,,,0.00,272,WeatherCatV1.23B16,2013-11-27 21:12:00,
2013-11-27 15:14:00,41.7,20.3,30.12,South,188,7.0,15.0,42,0.00,,,0.00,267,WeatherCatV1.23B16,2013-11-27 21:14:00,
2013-11-27 15:16:00,41.8,21.0,30.12,SSW,213,4.0,10.0,43,0.00,,,0.00,265,WeatherCatV1.23B16,2013-11-27 21:16:00,
2013-11-27 15:18:00,41.9,20.5,30.12,WSW,250,11.0,18.0,42,0.00,,,0.00,260,WeatherCatV1.23B16,2013-11-27 21:18:00,
2013-11-27 15:19:00,41.9,20.5,30.12,South,190,12.0,12.0,42,0.00,,,0.00,257,WeatherCatV1.23B16,2013-11-27 21:19:00,
2013-11-27 15:20:00,41.9,20.5,30.12,SW,226,17.0,17.0,42,0.00,,,0.00,253,WeatherCatV1.23B16,2013-11-27 21:20:00,
2013-11-27 15:21:00,41.8,20.4,30.12,South,176,14.0,21.0,42,0.00,,,0.00,251,WeatherCatV1.23B16,2013-11-27 21:21:00,
2013-11-27 15:22:00,41.8,20.4,30.12,SSW,199,11.0,14.0,42,0.00,,,0.00,248,WeatherCatV1.23B16,2013-11-27 21:22:00,
2013-11-27 15:23:00,41.8,21.0,30.11,SSW,195,11.0,14.0,43,0.00,,,0.00,248,WeatherCatV1.23B16,2013-11-27 21:23:00,
2013-11-27 15:24:00,41.8,21.0,30.11,SSW,206,4.0,15.0,43,0.00,,,0.00,243,WeatherCatV1.23B16,2013-11-27 21:24:00,
2013-11-27 15:25:00,41.8,21.0,30.11,SW,236,10.0,15.0,43,0.00,,,0.00,243,WeatherCatV1.23B16,2013-11-27 21:25:00,
2013-11-27 15:26:00,41.8,21.0,30.11,WSW,242,10.0,14.0,43,0.00,,,0.00,239,WeatherCatV1.23B16,2013-11-27 21:26:00,
2013-11-27 15:28:00,41.9,20.5,30.12,SSW,203,15.0,15.0,42,0.00,,,0.00,236,WeatherCatV1.23B16,2013-11-27 21:28:00,
2013-11-27 15:29:00,41.7,20.3,30.12,SSW,209,9.0,19.0,42,0.00,,,0.00,229,WeatherCatV1.23B16,2013-11-27 21:29:00,
2013-11-27 15:30:00,41.7,20.3,30.12,SSW,197,12.0,19.0,42,0.00,,,0.00,229,WeatherCatV1.23B16,2013-11-27 21:30:00,
2013-11-27 15:31:00,41.6,20.2,30.12,SSW,209,15.0,17.0,42,0.00,,,0.00,223,WeatherCatV1.23B16,2013-11-27 21:31:00,
2013-11-27 15:33:00,41.5,20.1,30.12,SSW,194,5.0,15.0,42,0.00,,,0.00,220,WeatherCatV1.23B16,2013-11-27 21:33:00,
2013-11-27 15:34:00,41.6,20.8,30.12,SSW,211,11.0,14.0,43,0.00,,,0.00,218,WeatherCatV1.23B16,2013-11-27 21:34:00,
2013-11-27 15:35:00,41.6,20.8,30.12,SSW,205,4.0,16.0,43,0.00,,,0.00,209,WeatherCatV1.23B16,2013-11-27 21:35:00,
2013-11-27 15:36:00,41.6,20.8,30.12,South,171,12.0,16.0,43,0.00,,,0.00,207,WeatherCatV1.23B16,2013-11-27 21:36:00,
2013-11-27 15:38:00,41.6,20.8,30.11,WNW,294,9.0,13.0,43,0.00,,,0.00,200,WeatherCatV1.23B16,2013-11-27 21:38:00,
2013-11-27 15:39:00,41.6,20.8,30.11,SW,225,9.0,16.0,43,0.00,,,0.00,195,WeatherCatV1.23B16,2013-11-27 21:39:00,
2013-11-27 15:40:00,41.6,20.8,30.11,SW,229,7.0,16.0,43,0.00,,,0.00,193,WeatherCatV1.23B16,2013-11-27 21:40:00,
2013-11-27 15:42:00,41.7,20.9,30.11,SSE,150,10.0,13.0,43,0.00,,,0.00,186,WeatherCatV1.23B16,2013-11-27 21:42:00,
2013-11-27 15:43:00,41.7,20.9,30.11,South,171,9.0,17.0,43,0.00,,,0.00,181,WeatherCatV1.23B16,2013-11-27 21:43:00,
2013-11-27 15:44:00,41.6,20.8,30.11,SSW,202,5.0,19.0,43,0.00,,,0.00,176,WeatherCatV1.23B16,2013-11-27 21:44:00,
2013-11-27 15:45:00,41.6,20.8,30.12,SSW,207,8.0,19.0,43,0.00,,,0.00,174,WeatherCatV1.23B16,2013-11-27 21:45:00,
2013-11-27 15:47:00,41.5,20.7,30.12,SSW,209,9.0,18.0,43,0.00,,,0.00,167,WeatherCatV1.23B16,2013-11-27 21:47:00,
2013-11-27 15:48:00,41.5,20.7,30.12,SSW,202,4.0,18.0,43,0.00,,,0.00,163,WeatherCatV1.23B16,2013-11-27 21:48:00,
2013-11-27 15:50:00,41.5,20.7,30.12,WSW,245,6.0,14.0,43,0.00,,,0.00,156,WeatherCatV1.23B16,2013-11-27 21:50:00,
2013-11-27 15:52:00,41.5,20.7,30.11,SW,229,19.0,19.0,43,0.00,,,0.00,151,WeatherCatV1.23B16,2013-11-27 21:52:00,
2013-11-27 15:53:00,41.5,20.7,30.11,SSW,207,13.0,19.0,43,0.00,,,0.00,148,WeatherCatV1.23B16,2013-11-27 21:53:00,
2013-11-27 15:55:00,41.4,20.6,30.11,SW,217,6.0,13.0,43,0.00,,,0.00,137,WeatherCatV1.23B16,2013-11-27 21:55:00,
2013-11-27 15:57:00,41.4,21.1,30.11,SSW,192,3.0,22.0,44,0.00,,,0.00,134,WeatherCatV1.23B16,2013-11-27 21:57:00,
2013-11-27 15:58:00,41.4,21.1,30.11,SW,219,9.0,17.0,44,0.00,,,0.00,127,WeatherCatV1.23B16,2013-11-27 21:58:00,
2013-11-27 16:00:00,41.4,21.1,30.11,WSW,248,5.0,17.0,44,0.00,,,0.00,123,WeatherCatV1.23B16,2013-11-27 22:00:00,
2013-11-27 16:01:00,41.4,21.1,30.11,SW,225,13.0,17.0,44,0.00,,,0.00,120,WeatherCatV1.23B16,2013-11-27 22:01:00,
2013-11-27 16:02:00,41.4,21.1,30.11,SSW,204,13.0,14.0,44,0.00,,,0.00,118,WeatherCatV1.23B16,2013-11-27 22:02:00,
2013-11-27 16:03:00,41.4,21.1,30.11,South,170,12.0,17.0,44,0.00,,,0.00,114,WeatherCatV1.23B16,2013-11-27 22:03:00,
2013-11-27 16:05:00,41.4,21.1,30.11,SW,214,6.0,19.0,44,0.00,,,0.00,105,WeatherCatV1.23B16,2013-11-27 22:05:00,
2013-11-27 16:06:00,41.4,21.1,30.11,SSW,209,18.0,19.0,44,0.00,,,0.00,105,WeatherCatV1.23B16,2013-11-27 22:06:00,
2013-11-27 16:07:00,41.4,21.1,30.11,SW,227,5.0,17.0,44,0.00,,,0.00,102,WeatherCatV1.23B16,2013-11-27 22:07:00,
2013-11-27 16:08:00,41.4,21.1,30.11,SW,236,8.0,19.0,44,0.00,,,0.00,98,WeatherCatV1.23B16,2013-11-27 22:08:00,
2013-11-27 16:09:00,41.4,21.1,30.11,SSW,195,9.0,19.0,44,0.00,,,0.00,95,WeatherCatV1.23B16,2013-11-27 22:09:00,
2013-11-27 16:10:00,41.4,21.1,30.11,SW,227,4.0,16.0,44,0.00,,,0.00,91,WeatherCatV1.23B16,2013-11-27 22:10:00,
2013-11-27 16:11:00,41.4,21.1,30.11,SW,225,8.0,12.0,44,0.00,,,0.00,91,WeatherCatV1.23B16,2013-11-27 22:11:00,
2013-11-27 16:12:00,41.3,21.0,30.11,SSW,211,4.0,14.0,44,0.00,,,0.00,86,WeatherCatV1.23B16,2013-11-27 22:12:00,
2013-11-27 16:14:00,41.3,21.0,30.11,SSW,198,9.0,18.0,44,0.00,,,0.00,84,WeatherCatV1.23B16,2013-11-27 22:14:00,
2013-11-27 16:16:00,41.3,21.0,30.11,SW,223,7.0,15.0,44,0.00,,,0.00,79,WeatherCatV1.23B16,2013-11-27 22:16:00,
2013-11-27 16:17:00,41.2,21.0,30.11,South,186,7.0,12.0,44,0.00,,,0.00,74,WeatherCatV1.23B16,2013-11-27 22:17:00,
2013-11-27 16:19:00,41.1,20.9,30.11,South,184,11.0,15.0,44,0.00,,,0.00,70,WeatherCatV1.23B16,2013-11-27 22:19:00,
2013-11-27 16:21:00,41.1,20.9,30.11,SSW,192,6.0,15.0,44,0.00,,,0.00,65,WeatherCatV1.23B16,2013-11-27 22:21:00,
2013-11-27 16:22:00,41.0,21.3,30.11,South,189,7.0,14.0,45,0.00,,,0.00,63,WeatherCatV1.23B16,2013-11-27 22:22:00,
2013-11-27 16:24:00,41.0,21.3,30.11,West,279,3.0,9.0,45,0.00,,,0.00,58,WeatherCatV1.23B16,2013-11-27 22:24:00,
2013-11-27 16:26:00,40.9,21.2,30.11,SSW,205,10.0,16.0,45,0.00,,,0.00,54,WeatherCatV1.23B16,2013-11-27 22:26:00,
2013-11-27 16:27:00,40.9,21.7,30.11,SW,228,14.0,14.0,46,0.00,,,0.00,53,WeatherCatV1.23B16,2013-11-27 22:27:00,
2013-11-27 16:28:00,40.9,21.7,30.11,SW,229,5.0,14.0,46,0.00,,,0.00,51,WeatherCatV1.23B16,2013-11-27 22:28:00,
2013-11-27 16:29:00,40.9,21.7,30.11,SSW,211,6.0,10.0,46,0.00,,,0.00,42,WeatherCatV1.23B16,2013-11-27 22:29:00,
2013-11-27 16:31:00,40.8,21.6,30.11,SSW,207,13.0,13.0,46,0.00,,,0.00,35,WeatherCatV1.23B16,2013-11-27 22:31:00,
2013-11-27 16:32:00,40.7,21.5,30.11,SSW,207,6.0,13.0,46,0.00,,,0.00,35,WeatherCatV1.23B16,2013-11-27 22:32:00,
2013-11-27 16:33:00,40.7,21.5,30.10,South,188,7.0,7.0,46,0.00,,,0.00,35,WeatherCatV1.23B16,2013-11-27 22:33:00,
2013-11-27 16:34:00,40.6,21.5,30.10,SSW,194,11.0,15.0,46,0.00,,,0.00,32,WeatherCatV1.23B16,2013-11-27 22:34:00,
2013-11-27 16:35:00,40.6,21.5,30.10,WSW,237,16.0,19.0,46,0.00,,,0.00,32,WeatherCatV1.23B16,2013-11-27 22:35:00,
2013-11-27 16:36:00,40.6,21.5,30.10,South,183,12.0,19.0,46,0.00,,,0.00,32,WeatherCatV1.23B16,2013-11-27 22:36:00,
2013-11-27 16:37:00,40.6,21.5,30.10,SSW,192,4.0,13.0,46,0.00,,,0.00,30,WeatherCatV1.23B16,2013-11-27 22:37:00,
2013-11-27 16:38:00,40.6,21.5,30.10,SSW,209,5.0,13.0,46,0.00,,,0.00,28,WeatherCatV1.23B16,2013-11-27 22:38:00,
2013-11-27 16:39:00,40.5,21.4,30.10,SW,219,9.0,16.0,46,0.00,,,0.00,25,WeatherCatV1.23B16,2013-11-27 22:39:00,
2013-11-27 16:40:00,40.5,21.4,30.10,SW,221,9.0,16.0,46,0.00,,,0.00,25,WeatherCatV1.23B16,2013-11-27 22:40:00,
2013-11-27 16:42:00,40.4,21.8,30.10,SSW,210,5.0,12.0,47,0.00,,,0.00,21,WeatherCatV1.23B16,2013-11-27 22:42:00,
2013-11-27 16:43:00,40.4,21.8,30.10,SSW,204,9.0,14.0,47,0.00,,,0.00,19,WeatherCatV1.23B16,2013-11-27 22:43:00,
2013-11-27 16:45:00,40.4,21.8,30.10,SSW,211,3.0,10.0,47,0.00,,,0.00,18,WeatherCatV1.23B16,2013-11-27 22:45:00,
2013-11-27 16:47:00,40.2,21.6,30.10,South,180,5.0,12.0,47,0.00,,,0.00,16,WeatherCatV1.23B16,2013-11-27 22:47:00,
2013-11-27 16:48:00,40.2,21.6,30.10,SW,215,10.0,12.0,47,0.00,,,0.00,16,WeatherCatV1.23B16,2013-11-27 22:48:00,
2013-11-27 16:50:00,40.1,21.5,30.10,SSW,197,6.0,11.0,47,0.00,,,0.00,16,WeatherCatV1.23B16,2013-11-27 22:50:00,
2013-11-27 16:52:00,40.0,21.9,30.10,SSW,202,10.0,15.0,48,0.00,,,0.00,16,WeatherCatV1.23B16,2013-11-27 22:52:00,
2013-11-27 16:53:00,39.9,21.8,30.10,South,190,10.0,15.0,48,0.00,,,0.00,14,WeatherCatV1.23B16,2013-11-27 22:53:00,
2013-11-27 16:55:00,39.8,21.7,30.10,SSW,210,5.0,14.0,48,0.00,,,0.00,14,WeatherCatV1.23B16,2013-11-27 22:55:00,
2013-11-27 16:56:00,39.8,21.7,30.10,South,174,5.0,9.0,48,0.00,,,0.00,14,WeatherCatV1.23B16,2013-11-27 22:56:00,
2013-11-27 16:58:00,39.7,21.6,30.10,SSW,198,5.0,20.0,48,0.00,,,0.00,12,WeatherCatV1.23B16,2013-11-27 22:58:00,
2013-11-27 16:59:00,39.6,22.0,30.10,SSW,209,6.0,14.0,49,0.00,,,0.00,12,WeatherCatV1.23B16,2013-11-27 22:59:00,
2013-11-27 17:00:00,39.6,22.0,30.10,SSW,209,8.0,12.0,49,0.00,,,0.00,12,WeatherCatV1.23B16,2013-11-27 23:00:00,
2013-11-27 17:01:00,39.5,21.9,30.10,SW,222,11.0,18.0,49,0.00,,,0.00,11,WeatherCatV1.23B16,2013-11-27 23:01:00,
2013-11-27 17:03:00,39.5,21.9,30.10,SSW,197,11.0,15.0,49,0.00,,,0.00,9,WeatherCatV1.23B16,2013-11-27 23:03:00,
2013-11-27 17:04:00,39.5,21.9,30.10,SSW,196,7.0,13.0,49,0.00,,,0.00,9,WeatherCatV1.23B16,2013-11-27 23:04:00,
2013-11-27 17:05:00,39.4,21.9,30.10,SSW,200,11.0,11.0,49,0.00,,,0.00,9,WeatherCatV1.23B16,2013-11-27 23:05:00,
2013-11-27 17:06:00,39.4,21.9,30.10,SSW,196,6.0,12.0,49,0.00,,,0.00,7,WeatherCatV1.23B16,2013-11-27 23:06:00,
2013-11-27 17:08:00,39.3,22.2,30.10,SSW,205,6.0,13.0,50,0.00,,,0.00,7,WeatherCatV1.23B16,2013-11-27 23:08:00,
2013-11-27 17:09:00,39.3,22.2,30.10,SW,225,9.0,16.0,50,0.00,,,0.00,7,WeatherCatV1.23B16,2013-11-27 23:09:00,
2013-11-27 17:10:00,39.3,22.2,30.10,SW,216,10.0,16.0,50,0.00,,,0.00,5,WeatherCatV1.23B16,2013-11-27 23:10:00,
2013-11-27 17:11:00,39.2,22.1,30.10,SSW,206,3.0,13.0,50,0.00,,,0.00,5,WeatherCatV1.23B16,2013-11-27 23:11:00,
2013-11-27 17:14:00,39.1,22.0,30.10,SSW,192,3.0,13.0,50,0.00,,,0.00,0,WeatherCatV1.23B16,2013-11-27 23:14:00,
2013-11-27 17:15:00,39.0,22.0,30.10,SW,225,7.0,7.0,50,0.00,,,0.00,0,WeatherCatV1.23B16,2013-11-27 23:15:00,
2013-11-27 17:17:00,38.8,21.8,30.09,SSW,192,7.0,11.0,50,0.00,,,0.00,0,WeatherCatV1.23B16,2013-11-27 23:17:00,
2013-11-27 17:19:00,38.7,21.7,30.09,SSW,201,7.0,14.0,50,0.00,,,0.00,0,WeatherCatV1.23B16,2013-11-27 23:19:00,
2013-11-27 17:20:00,38.6,22.0,30.09,SSW,209,8.0,14.0,51,0.00,,,0.00,0,WeatherCatV1.23B16,2013-11-27 23:20:00,
2013-11-27 17:21:00,38.6,22.0,30.09,SSW,199,9.0,14.0,51,0.00,,,0.00,0,WeatherCatV1.23B16,2013-11-27 23:21:00,
2013-11-27 17:24:00,38.6,22.0,30.09,SSW,200,9.0,19.0,51,0.00,,,0.00,0,WeatherCatV1.23B16,2013-11-27 23:24:00,
2013-11-27 17:25:00,38.5,22.0,30.09,SW,235,4.0,13.0,51,0.00,,,0.00,0,WeatherCatV1.23B16,2013-11-27 23:25:00,
2013-11-27 17:26:00,38.5,22.0,30.09,SW,229,7.0,11.0,51,0.00,,,0.00,0,WeatherCatV1.23B16,2013-11-27 23:26:00,
2013-11-27 17:29:00,38.4,22.3,30.09,SW,221,5.0,10.0,52,0.00,,,0.00,0,WeatherCatV1.23B16,2013-11-27 23:29:00,
2013-11-27 17:30:00,38.4,21.9,30.09,SW,227,7.0,11.0,51,0.00,,,0.00,0,WeatherCatV1.23B16,2013-11-27 23:30:00,
2013-11-27 17:31:00,38.4,21.9,30.09,SSW,212,3.0,10.0,51,0.00,,,0.00,0,WeatherCatV1.23B16,2013-11-27 23:31:00,
2013-11-27 17:34:00,38.2,22.1,30.09,SW,232,8.0,13.0,52,0.00,,,0.00,0,WeatherCatV1.23B16,2013-11-27 23:34:00,
2013-11-27 17:35:00,38.2,22.1,30.09,SSW,206,7.0,15.0,52,0.00,,,0.00,0,WeatherCatV1.23B16,2013-11-27 23:35:00,
2013-11-27 17:36:00,38.1,22.0,30.09,SSW,202,5.0,15.0,52,0.00,,,0.00,0,WeatherCatV1.23B16,2013-11-27 23:36:00,
2013-11-27 17:39:00,38.0,22.0,30.09,South,191,13.0,13.0,52,0.00,,,0.00,0,WeatherCatV1.23B16,2013-11-27 23:39:00,
2013-11-27 17:40:00,38.0,22.0,30.09,SSW,211,2.0,13.0,52,0.00,,,0.00,0,WeatherCatV1.23B16,2013-11-27 23:40:00,
2013-11-27 17:41:00,38.0,22.0,30.09,SSW,207,11.0,15.0,52,0.00,,,0.00,0,WeatherCatV1.23B16,2013-11-27 23:41:00,
2013-11-27 17:45:00,37.9,21.9,30.09,SSW,202,10.0,17.0,52,0.00,,,0.00,0,WeatherCatV1.23B16,2013-11-27 23:45:00,
2013-11-27 17:46:00,37.9,22.3,30.09,SSW,205,6.0,17.0,53,0.00,,,0.00,0,WeatherCatV1.23B16,2013-11-27 23:46:00,
2013-11-27 17:47:00,37.9,22.3,30.09,SSW,195,6.0,13.0,53,0.00,,,0.00,0,WeatherCatV1.23B16,2013-11-27 23:47:00,
2013-11-27 17:50:00,37.7,22.1,30.09,SSW,208,9.0,16.0,53,0.00,,,0.00,0,WeatherCatV1.23B16,2013-11-27 23:50:00,
2013-11-27 17:51:00,37.7,22.1,30.09,SW,236,4.0,16.0,53,0.00,,,0.00,0,WeatherCatV1.23B16,2013-11-27 23:51:00,
2013-11-27 17:52:00,37.7,22.1,30.09,SSW,209,3.0,12.0,53,0.00,,,0.00,0,WeatherCatV1.23B16,2013-11-27 23:52:00,
2013-11-27 17:56:00,37.4,21.9,30.09,SSW,210,12.0,12.0,53,0.00,,,0.00,0,WeatherCatV1.23B16,2013-11-27 23:56:00,
2013-11-27 17:57:00,37.4,21.9,30.09,South,190,11.0,12.0,53,0.00,,,0.00,0,WeatherCatV1.23B16,2013-11-27 23:57:00,
2013-11-27 18:01:00,37.4,22.3,30.09,SSW,211,3.0,11.0,54,0.00,,,0.00,0,WeatherCatV1.23B16,2013-11-28 00:01:00,
2013-11-27 18:02:00,37.4,22.3,30.09,SSW,207,8.0,13.0,54,0.00,,,0.00,0,WeatherCatV1.23B16,2013-11-28 00:02:00,
2013-11-27 18:06:00,37.3,22.2,30.09,SW,218,5.0,12.0,54,0.00,,,0.00,0,WeatherCatV1.23B16,2013-11-28 00:06:00,
2013-11-27 18:07:00,37.2,22.1,30.09,SSW,194,5.0,12.0,54,0.00,,,0.00,0,WeatherCatV1.23B16,2013-11-28 00:07:00,
2013-11-27 18:08:00,37.2,22.1,30.09,SSW,197,6.0,12.0,54,0.00,,,0.00,0,WeatherCatV1.23B16,2013-11-28 00:08:00,
2013-11-27 18:11:00,37.0,21.9,30.09,SSW,213,1.0,6.0,54,0.00,,,0.00,0,WeatherCatV1.23B16,2013-11-28 00:11:00,
2013-11-27 18:12:00,37.0,22.4,30.09,SSW,202,6.0,12.0,55,0.00,,,0.00,0,WeatherCatV1.23B16,2013-11-28 00:12:00,
2013-11-27 18:13:00,37.0,22.4,30.09,SW,234,7.0,12.0,55,0.00,,,0.00,0,WeatherCatV1.23B16,2013-11-28 00:13:00,
2013-11-27 18:16:00,36.9,22.3,30.09,SW,215,5.0,12.0,55,0.00,,,0.00,0,WeatherCatV1.23B16,2013-11-28 00:16:00,
2013-11-27 18:17:00,36.9,22.3,30.09,SW,215,5.0,12.0,55,0.00,,,0.00,0,WeatherCatV1.23B16,2013-11-28 00:17:00,
2013-11-27 18:18:00,36.9,22.3,30.09,SW,229,6.0,10.0,55,0.00,,,0.00,0,WeatherCatV1.23B16,2013-11-28 00:18:00,
2013-11-27 18:22:00,36.9,22.3,30.09,SW,217,6.0,13.0,55,0.00,,,0.00,0,WeatherCatV1.23B16,2013-11-28 00:22:00,
2013-11-27 18:23:00,36.8,22.2,30.09,WSW,246,10.0,12.0,55,0.00,,,0.00,0,WeatherCatV1.23B16,2013-11-28 00:23:00,
2013-11-27 18:27:00,36.8,22.6,30.09,SSW,198,4.0,7.0,56,0.00,,,0.00,0,WeatherCatV1.23B16,2013-11-28 00:27:00,
2013-11-27 18:28:00,36.8,22.6,30.09,SSW,209,10.0,10.0,56,0.00,,,0.00,0,WeatherCatV1.23B16,2013-11-28 00:28:00,
2013-11-27 18:32:00,36.6,22.4,30.09,SSW,210,5.0,11.0,56,0.00,,,0.00,0,WeatherCatV1.23B16,2013-11-28 00:32:00,
2013-11-27 18:33:00,36.6,22.4,30.09,SSW,203,8.0,9.0,56,0.00,,,0.00,0,WeatherCatV1.23B16,2013-11-28 00:33:00,
2013-11-27 18:34:00,36.6,22.4,30.09,SSW,210,3.0,11.0,56,0.00,,,0.00,0,WeatherCatV1.23B16,2013-11-28 00:34:00,
2013-11-27 18:37:00,36.5,22.3,30.09,SW,222,1.0,12.0,56,0.00,,,0.00,0,WeatherCatV1.23B16,2013-11-28 00:37:00,
2013-11-27 18:38:00,36.5,22.3,30.09,SW,221,3.0,5.0,56,0.00,,,0.00,0,WeatherCatV1.23B16,2013-11-28 00:38:00,
2013-11-27 18:39:00,36.5,22.3,30.09,SW,214,5.0,11.0,56,0.00,,,0.00,0,WeatherCatV1.23B16,2013-11-28 00:39:00,
2013-11-27 18:42:00,36.2,22.5,30.09,SSW,207,7.0,11.0,57,0.00,,,0.00,0,WeatherCatV1.23B16,2013-11-28 00:42:00,
2013-11-27 18:43:00,36.2,22.5,30.09,SSW,207,6.0,9.0,57,0.00,,,0.00,0,WeatherCatV1.23B16,2013-11-28 00:43:00,
2013-11-27 18:44:00,36.2,22.0,30.09,SW,214,4.0,7.0,56,0.00,,,0.00,0,WeatherCatV1.23B16,2013-11-28 00:44:00,
2013-11-27 18:47:00,36.0,22.3,30.09,SSW,213,8.0,11.0,57,0.00,,,0.00,0,WeatherCatV1.23B16,2013-11-28 00:47:00,
2013-11-27 18:48:00,35.9,22.2,30.09,SW,225,4.0,10.0,57,0.00,,,0.00,0,WeatherCatV1.23B16,2013-11-28 00:48:00,
2013-11-27 18:49:00,35.9,22.2,30.09,SW,229,6.0,8.0,57,0.00,,,0.00,0,WeatherCatV1.23B16,2013-11-28 00:49:00,
2013-11-27 18:52:00,35.7,22.0,30.09,SW,234,4.0,11.0,57,0.00,,,0.00,0,WeatherCatV1.23B16,2013-11-28 00:52:00,
2013-11-27 18:54:00,35.7,22.0,30.09,SW,217,4.0,11.0,57,0.00,,,0.00,0,WeatherCatV1.23B16,2013-11-28 00:54:00,
2013-11-27 18:55:00,35.7,22.0,30.09,SW,216,4.0,11.0,57,0.00,,,0.00,0,WeatherCatV1.23B16,2013-11-28 00:55:00,
2013-11-27 18:57:00,35.7,22.4,30.09,SW,219,6.0,6.0,58,0.00,,,0.00,0,WeatherCatV1.23B16,2013-11-28 00:57:00,
2013-11-27 18:59:00,35.7,22.0,30.09,SW,222,5.0,7.0,57,0.00,,,0.00,0,WeatherCatV1.23B16,2013-11-28 00:59:00,
2013-11-27 19:00:00,35.7,22.0,30.09,SSW,200,0.0,7.0,57,0.00,,,0.00,0,WeatherCatV1.23B16,2013-11-28 01:00:00,
2013-11-27 19:02:00,35.6,22.3,30.09,SSW,202,4.0,6.0,58,0.00,,,0.00,0,WeatherCatV1.23B16,2013-11-28 01:02:00,
2013-11-27 19:03:00,35.6,22.3,30.09,SSW,202,2.0,6.0,58,0.00,,,0.00,0,WeatherCatV1.23B16,2013-11-28 01:03:00,
2013-11-27 19:04:00,35.6,22.3,30.09,SSW,202,3.0,6.0,58,0.00,,,0.00,0,WeatherCatV1.23B16,2013-11-28 01:04:00,
2013-11-27 19:05:00,35.5,22.2,30.09,SW,232,5.0,7.0,58,0.00,,,0.00,0,WeatherCatV1.23B16,2013-11-28 01:05:00,
2013-11-27 19:07:00,35.5,22.2,30.09,SW,232,1.0,6.0,58,0.00,,,0.00,0,WeatherCatV1.23B16,2013-11-28 01:07:00,
2013-11-27 19:08:00,35.4,22.1,30.09,SW,217,9.0,9.0,58,0.00,,,0.00,0,WeatherCatV1.23B16,2013-11-28 01:08:00,
2013-11-27 19:09:00,35.4,22.1,30.09,SW,230,5.0,11.0,58,0.00,,,0.00,0,WeatherCatV1.23B16,2013-11-28 01:09:00,
2013-11-27 19:11:00,35.4,22.1,30.09,SW,222,7.0,7.0,58,0.00,,,0.00,0,WeatherCatV1.23B16,2013-11-28 01:11:00,
2013-11-27 19:13:00,35.4,22.1,30.09,SW,215,4.0,10.0,58,0.00,,,0.00,0,WeatherCatV1.23B16,2013-11-28 01:13:00,
2013-11-27 19:14:00,35.4,22.1,30.09,SW,215,7.0,10.0,58,0.00,,,0.00,0,WeatherCatV1.23B16,2013-11-28 01:14:00,
2013-11-27 19:15:00,35.4,22.1,30.09,SW,214,7.0,12.0,58,0.00,,,0.00,0,WeatherCatV1.23B16,2013-11-28 01:15:00,
2013-11-27 19:16:00,35.3,22.0,30.09,SW,221,4.0,12.0,58,0.00,,,0.00,0,WeatherCatV1.23B16,2013-11-28 01:16:00,
2013-11-27 19:18:00,35.2,21.9,30.09,SSW,194,3.0,7.0,58,0.00,,,0.00,0,WeatherCatV1.23B16,2013-11-28 01:18:00,
2013-11-27 19:20:00,35.1,21.8,30.09,SSW,206,7.0,15.0,58,0.00,,,0.00,0,WeatherCatV1.23B16,2013-11-28 01:20:00,
2013-11-27 19:21:00,35.1,22.2,30.09,SSW,204,6.0,15.0,59,0.00,,,0.00,0,WeatherCatV1.23B16,2013-11-28 01:21:00,
2013-11-27 19:23:00,35.0,22.1,30.09,SSW,204,6.0,10.0,59,0.00,,,0.00,0,WeatherCatV1.23B16,2013-11-28 01:23:00,
2013-11-27 19:24:00,35.0,22.1,30.09,SSW,205,7.0,7.0,59,0.00,,,0.00,0,WeatherCatV1.23B16,2013-11-28 01:24:00,
2013-11-27 19:25:00,35.0,22.1,30.09,SSW,205,3.0,10.0,59,0.00,,,0.00,0,WeatherCatV1.23B16,2013-11-28 01:25:00,
2013-11-27 19:26:00,34.9,22.0,30.09,SSW,213,10.0,10.0,59,0.00,,,0.00,0,WeatherCatV1.23B16,2013-11-28 01:26:00,
2013-11-27 19:28:00,34.9,22.0,30.09,SW,215,4.0,9.0,59,0.00,,,0.00,0,WeatherCatV1.23B16,2013-11-28 01:28:00,
2013-11-27 19:29:00,34.9,22.0,30.09,SSW,213,5.0,9.0,59,0.00,,,0.00,0,WeatherCatV1.23B16,2013-11-28 01:29:00,
2013-11-27 19:30:00,34.8,22.0,30.09,WSW,241,4.0,12.0,59,0.00,,,0.00,0,WeatherCatV1.23B16,2013-11-28 01:30:00,
2013-11-27 19:31:00,34.7,21.9,30.08,WSW,241,2.0,12.0,59,0.00,,,0.00,0,WeatherCatV1.23B16,2013-11-28 01:31:00,
2013-11-27 19:33:00,34.5,22.1,30.09,SW,219,4.0,4.0,60,0.00,,,0.00,0,WeatherCatV1.23B16,2013-11-28 01:33:00,
2013-11-27 19:34:00,34.4,22.0,30.09,SW,219,1.0,5.0,60,0.00,,,0.00,0,WeatherCatV1.23B16,2013-11-28 01:34:00,
2013-11-27 19:35:00,34.4,22.0,30.09,SW,220,2.0,6.0,60,0.00,,,0.00,0,WeatherCatV1.23B16,2013-11-28 01:35:00,
2013-11-27 19:36:00,34.4,22.0,30.09,SW,220,1.0,6.0,60,0.00,,,0.00,0,WeatherCatV1.23B16,2013-11-28 01:36:00,
2013-11-27 19:37:00,34.4,22.0,30.09,SW,220,2.0,3.0,60,0.00,,,0.00,0,WeatherCatV1.23B16,2013-11-28 01:37:00,
2013-11-27 19:38:00,34.4,22.0,30.09,SW,220,0.0,1.0,60,0.00,,,0.00,0,WeatherCatV1.23B16,2013-11-28 01:38:00,
2013-11-27 19:39:00,34.4,22.0,30.09,SW,220,1.0,2.0,60,0.00,,,0.00,0,WeatherCatV1.23B16,2013-11-28 01:39:00,
2013-11-27 19:40:00,34.4,22.0,30.09,SW,223,5.0,5.0,60,0.00,,,0.00,0,WeatherCatV1.23B16,2013-11-28 01:40:00,
2013-11-27 19:41:00,34.4,22.0,30.09,SW,223,2.0,5.0,60,0.00,,,0.00,0,WeatherCatV1.23B16,2013-11-28 01:41:00,
2013-11-27 19:42:00,34.4,22.0,30.09,SW,223,5.0,7.0,60,0.00,,,0.00,0,WeatherCatV1.23B16,2013-11-28 01:42:00,
2013-11-27 19:43:00,34.4,22.4,30.09,SW,223,0.0,7.0,61,0.00,,,0.00,0,WeatherCatV1.23B16,2013-11-28 01:43:00,
2013-11-27 19:45:00,34.4,22.4,30.09,SW,223,5.0,6.0,61,0.00,,,0.00,0,WeatherCatV1.23B16,2013-11-28 01:45:00,
2013-11-27 19:46:00,34.4,22.4,30.09,SW,224,3.0,6.0,61,0.00,,,0.00,0,WeatherCatV1.23B16,2013-11-28 01:46:00,
2013-11-27 19:47:00,34.4,22.4,30.09,SW,225,5.0,6.0,61,0.00,,,0.00,0,WeatherCatV1.23B16,2013-11-28 01:47:00,
2013-11-27 19:49:00,34.4,22.4,30.09,South,191,7.0,10.0,61,0.00,,,0.00,0,WeatherCatV1.23B16,2013-11-28 01:49:00,
2013-11-27 19:50:00,34.4,22.4,30.08,SW,223,9.0,11.0,61,0.00,,,0.00,0,WeatherCatV1.23B16,2013-11-28 01:50:00,
2013-11-27 19:51:00,34.4,22.4,30.08,SW,214,10.0,12.0,61,0.00,,,0.00,0,WeatherCatV1.23B16,2013-11-28 01:51:00,
2013-11-27 19:52:00,34.5,22.5,30.08,SSW,198,8.0,12.0,61,0.00,,,0.00,0,WeatherCatV1.23B16,2013-11-28 01:52:00,
2013-11-27 19:54:00,34.5,22.5,30.08,SSW,199,10.0,12.0,61,0.00,,,0.00,0,WeatherCatV1.23B16,2013-11-28 01:54:00,
2013-11-27 19:55:00,34.5,22.5,30.08,WSW,237,7.0,12.0,61,0.00,,,0.00,0,WeatherCatV1.23B16,2013-11-28 01:55:00,
2013-11-27 19:56:00,34.6,22.5,30.08,SW,214,9.0,12.0,61,0.00,,,0.00,0,WeatherCatV1.23B16,2013-11-28 01:56:00,
2013-11-27 19:57:00,34.5,22.5,30.08,SSW,210,5.0,9.0,61,0.00,,,0.00,0,WeatherCatV1.23B16,2013-11-28 01:57:00,
2013-11-27 19:58:00,34.5,22.5,30.08,SSW,210,5.0,6.0,61,0.00,,,0.00,0,WeatherCatV1.23B16,2013-11-28 01:58:00,
2013-11-27 19:59:00,34.4,22.4,30.08,SSW,210,3.0,11.0,61,0.00,,,0.00,0,WeatherCatV1.23B16,2013-11-28 01:59:00,
2013-11-27 20:00:00,34.4,22.4,30.08,SW,217,8.0,11.0,61,0.00,,,0.00,0,WeatherCatV1.23B16,2013-11-28 02:00:00,
2013-11-27 20:01:00,34.4,22.4,30.08,SW,221,7.0,9.0,61,0.00,,,0.00,0,WeatherCatV1.23B16,2013-11-28 02:01:00,
2013-11-27 20:03:00,34.4,22.4,30.09,SW,223,3.0,9.0,61,0.00,,,0.00,0,WeatherCatV1.23B16,2013-11-28 02:03:00,
2013-11-27 20:04:00,34.4,22.4,30.09,WSW,255,6.0,9.0,61,0.00,,,0.00,0,WeatherCatV1.23B16,2013-11-28 02:04:00,
2013-11-27 20:05:00,34.4,22.4,30.09,WSW,254,3.0,9.0,61,0.00,,,0.00,0,WeatherCatV1.23B16,2013-11-28 02:05:00,
2013-11-27 20:06:00,34.4,22.4,30.09,WSW,255,4.0,6.0,61,0.00,,,0.00,0,WeatherCatV1.23B16,2013-11-28 02:06:00,
2013-11-27 20:07:00,34.3,22.6,30.09,WSW,255,4.0,6.0,62,0.00,,,0.00,0,WeatherCatV1.23B16,2013-11-28 02:07:00,
2013-11-27 20:08:00,34.2,22.2,30.09,WSW,255,4.0,6.0,61,0.00,,,0.00,0,WeatherCatV1.23B16,2013-11-28 02:08:00,
2013-11-27 20:09:00,34.1,22.5,30.09,WSW,254,2.0,6.0,62,0.00,,,0.00,0,WeatherCatV1.23B16,2013-11-28 02:09:00,
2013-11-27 20:10:00,34.1,22.5,30.09,WSW,253,4.0,12.0,62,0.00,,,0.00,0,WeatherCatV1.23B16,2013-11-28 02:10:00,
2013-11-27 20:11:00,34.1,22.5,30.08,WSW,238,5.0,12.0,62,0.00,,,0.00,0,WeatherCatV1.23B16,2013-11-28 02:11:00,
2013-11-27 20:12:00,34.1,22.5,30.08,SSW,213,9.0,12.0,62,0.00,,,0.00,0,WeatherCatV1.23B16,2013-11-28 02:12:00,
2013-11-27 20:13:00,34.1,22.5,30.08,SW,217,6.0,7.0,62,0.00,,,0.00,0,WeatherCatV1.23B16,2013-11-28 02:13:00,
2013-11-27 20:14:00,34.1,22.5,30.08,SW,217,5.0,7.0,62,0.00,,,0.00,0,WeatherCatV1.23B16,2013-11-28 02:14:00,
2013-11-27 20:16:00,34.0,22.4,30.08,SW,229,5.0,7.0,62,0.00,,,0.00,0,WeatherCatV1.23B16,2013-11-28 02:16:00,
2013-11-27 20:17:00,34.0,22.4,30.08,SW,229,4.0,11.0,62,0.00,,,0.00,0,WeatherCatV1.23B16,2013-11-28 02:17:00,
2013-11-27 20:18:00,34.0,22.8,30.08,SSW,210,5.0,11.0,63,0.00,,,0.00,0,WeatherCatV1.23B16,2013-11-28 02:18:00,
2013-11-27 20:19:00,34.0,22.8,30.08,SSW,211,4.0,11.0,63,0.00,,,0.00,0,WeatherCatV1.23B16,2013-11-28 02:19:00,
2013-11-27 20:21:00,33.9,22.6,30.08,SW,221,4.0,10.0,63,0.00,,,0.00,0,WeatherCatV1.23B16,2013-11-28 02:21:00,
2013-11-27 20:22:00,33.9,22.6,30.08,SSW,204,5.0,9.0,63,0.00,,,0.00,0,WeatherCatV1.23B16,2013-11-28 02:22:00,
2013-11-27 20:23:00,33.9,22.6,30.08,SW,228,5.0,9.0,63,0.00,,,0.00,0,WeatherCatV1.23B16,2013-11-28 02:23:00,
2013-11-27 20:24:00,33.9,22.6,30.08,SSW,211,4.0,9.0,63,0.00,,,0.00,0,WeatherCatV1.23B16,2013-11-28 02:24:00,
2013-11-27 20:26:00,33.9,22.6,30.08,WSW,247,3.0,5.0,63,0.00,,,0.00,0,WeatherCatV1.23B16,2013-11-28 02:26:00,
2013-11-27 20:27:00,33.9,22.6,30.08,WSW,248,1.0,5.0,63,0.00,,,0.00,0,WeatherCatV1.23B16,2013-11-28 02:27:00,
2013-11-27 20:28:00,33.9,22.6,30.08,WSW,248,2.0,5.0,63,0.00,,,0.00,0,WeatherCatV1.23B16,2013-11-28 02:28:00,
2013-11-27 20:29:00,33.9,22.6,30.09,WSW,248,3.0,4.0,63,0.00,,,0.00,0,WeatherCatV1.23B16,2013-11-28 02:29:00,
2013-11-27 20:31:00,33.9,23.0,30.09,WSW,248,2.0,8.0,64,0.00,,,0.00,0,WeatherCatV1.23B16,2013-11-28 02:31:00,
2013-11-27 20:32:00,33.9,23.0,30.09,WSW,248,2.0,8.0,64,0.00,,,0.00,0,WeatherCatV1.23B16,2013-11-28 02:32:00,
2013-11-27 20:34:00,33.9,23.0,30.09,WSW,252,3.0,7.0,64,0.00,,,0.00,0,WeatherCatV1.23B16,2013-11-28 02:34:00,
2013-11-27 20:35:00,33.9,23.0,30.09,West,261,5.0,10.0,64,0.00,,,0.00,0,WeatherCatV1.23B16,2013-11-28 02:35:00,
2013-11-27 20:36:00,34.0,23.1,30.09,West,261,4.0,4.0,64,0.00,,,0.00,0,WeatherCatV1.23B16,2013-11-28 02:36:00,
2013-11-27 20:37:00,34.0,23.1,30.09,West,261,3.0,4.0,64,0.00,,,0.00,0,WeatherCatV1.23B16,2013-11-28 02:37:00,
2013-11-27 20:39:00,33.9,23.0,30.09,West,261,5.0,5.0,64,0.00,,,0.00,0,WeatherCatV1.23B16,2013-11-28 02:39:00,
2013-11-27 20:40:00,33.9,23.0,30.09,West,261,4.0,5.0,64,0.00,,,0.00,0,WeatherCatV1.23B16,2013-11-28 02:40:00,
2013-11-27 20:42:00,33.7,22.8,30.09,West,261,3.0,5.0,64,0.00,,,0.00,0,WeatherCatV1.23B16,2013-11-28 02:42:00,
2013-11-27 20:44:00,33.5,22.6,30.09,West,261,2.0,4.0,64,0.00,,,0.00,0,WeatherCatV1.23B16,2013-11-28 02:44:00,
2013-11-27 20:45:00,33.4,22.5,30.09,WSW,257,4.0,6.0,64,0.00,,,0.00,0,WeatherCatV1.23B16,2013-11-28 02:45:00,
2013-11-27 20:47:00,33.3,22.8,30.09,WSW,255,4.0,6.0,65,0.00,,,0.00,0,WeatherCatV1.23B16,2013-11-28 02:47:00,
2013-11-27 20:49:00,33.3,22.8,30.09,WSW,254,2.0,4.0,65,0.00,,,0.00,0,WeatherCatV1.23B16,2013-11-28 02:49:00,
2013-11-27 20:50:00,33.3,22.8,30.09,WSW,255,3.0,4.0,65,0.00,,,0.00,0,WeatherCatV1.23B16,2013-11-28 02:50:00,
2013-11-27 20:52:00,33.2,22.7,30.09,WSW,250,2.0,5.0,65,0.00,,,0.00,0,WeatherCatV1.23B16,2013-11-28 02:52:00,
2013-11-27 20:53:00,33.2,22.7,30.09,WSW,250,1.0,5.0,65,0.00,,,0.00,0,WeatherCatV1.23B16,2013-11-28 02:53:00,
2013-11-27 20:55:00,33.0,22.5,30.10,West,263,4.0,5.0,65,0.00,,,0.00,0,WeatherCatV1.23B16,2013-11-28 02:55:00,
2013-11-27 20:56:00,33.0,22.9,30.10,West,263,2.0,5.0,66,0.00,,,0.00,0,WeatherCatV1.23B16,2013-11-28 02:56:00,
2013-11-27 20:58:00,33.0,22.9,30.09,WSW,248,4.0,7.0,66,0.00,,,0.00,0,WeatherCatV1.23B16,2013-11-28 02:58:00,
2013-11-27 21:00:00,32.9,22.8,30.10,WSW,245,4.0,6.0,66,0.00,,,0.00,0,WeatherCatV1.23B16,2013-11-28 03:00:00,
2013-11-27 21:01:00,32.8,22.7,30.09,WSW,240,5.0,8.0,66,0.00,,,0.00,0,WeatherCatV1.23B16,2013-11-28 03:01:00,
2013-11-27 21:04:00,32.8,23.1,30.10,WSW,257,3.0,7.0,67,0.00,,,0.00,0,WeatherCatV1.23B16,2013-11-28 03:04:00,
2013-11-27 21:05:00,32.8,23.1,30.10,WSW,256,3.0,5.0,67,0.00,,,0.00,0,WeatherCatV1.23B16,2013-11-28 03:05:00,
2013-11-27 21:06:00,32.9,23.2,30.10,WSW,257,2.0,5.0,67,0.00,,,0.00,0,WeatherCatV1.23B16,2013-11-28 03:06:00,
2013-11-27 21:09:00,33.0,23.3,30.11,WSW,255,6.0,6.0,67,0.00,,,0.00,0,WeatherCatV1.23B16,2013-11-28 03:09:00,
2013-11-27 21:10:00,33.0,23.3,30.11,WSW,246,3.0,6.0,67,0.00,,,0.00,0,WeatherCatV1.23B16,2013-11-28 03:10:00,
2013-11-27 21:11:00,33.0,23.3,30.11,WSW,246,2.0,4.0,67,0.00,,,0.00,0,WeatherCatV1.23B16,2013-11-28 03:11:00,
2013-11-27 21:14:00,33.0,23.3,30.11,WSW,248,2.0,3.0,67,0.00,,,0.00,0,WeatherCatV1.23B16,2013-11-28 03:14:00,
2013-11-27 21:16:00,32.9,23.5,30.11,WSW,248,3.0,5.0,68,0.00,,,0.00,0,WeatherCatV1.23B16,2013-11-28 03:16:00,
2013-11-27 21:17:00,32.9,23.5,30.11,WSW,249,4.0,5.0,68,0.00,,,0.00,0,WeatherCatV1.23B16,2013-11-28 03:17:00,
2013-11-27 21:19:00,32.9,23.5,30.11,WSW,249,2.0,5.0,68,0.00,,,0.00,0,WeatherCatV1.23B16,2013-11-28 03:19:00,
2013-11-27 21:20:00,32.9,23.5,30.11,WSW,249,2.0,5.0,68,0.00,,,0.00,0,WeatherCatV1.23B16,2013-11-28 03:20:00,
2013-11-27 21:21:00,32.9,23.5,30.11,WSW,249,3.0,6.0,68,0.00,,,0.00,0,WeatherCatV1.23B16,2013-11-28 03:21:00,
2013-11-27 21:22:00,32.9,23.5,30.12,WSW,249,3.0,6.0,68,0.00,,,0.00,0,WeatherCatV1.23B16,2013-11-28 03:22:00,
2013-11-27 21:24:00,33.0,23.6,30.11,WSW,249,1.0,5.0,68,0.00,,,0.00,0,WeatherCatV1.23B16,2013-11-28 03:24:00,
2013-11-27 21:25:00,33.0,23.6,30.11,West,271,7.0,7.0,68,0.00,,,0.00,0,WeatherCatV1.23B16,2013-11-28 03:25:00,
2013-11-27 21:26:00,33.0,23.6,30.11,West,276,2.0,7.0,68,0.00,,,0.00,0,WeatherCatV1.23B16,2013-11-28 03:26:00,
2013-11-27 21:27:00,33.0,24.0,30.11,West,263,5.0,7.0,69,0.00,,,0.00,0,WeatherCatV1.23B16,2013-11-28 03:27:00,
2013-11-27 21:28:00,33.0,24.0,30.11,WSW,257,2.0,8.0,69,0.00,,,0.00,0,WeatherCatV1.23B16,2013-11-28 03:28:00,
2013-11-27 21:29:00,33.1,24.0,30.12,West,269,3.0,8.0,69,0.00,,,0.00,0,WeatherCatV1.23B16,2013-11-28 03:29:00,
2013-11-27 21:30:00,33.2,24.1,30.12,West,275,3.0,7.0,69,0.00,,,0.00,0,WeatherCatV1.23B16,2013-11-28 03:30:00,
2013-11-27 21:31:00,33.2,24.1,30.12,West,275,3.0,7.0,69,0.00,,,0.00,0,WeatherCatV1.23B16,2013-11-28 03:31:00,
2013-11-27 21:33:00,33.2,24.1,30.12,West,275,3.0,5.0,69,0.00,,,0.00,0,WeatherCatV1.23B16,2013-11-28 03:33:00,
2013-11-27 21:34:00,33.2,24.1,30.12,West,275,4.0,4.0,69,0.00,,,0.00,0,WeatherCatV1.23B16,2013-11-28 03:34:00,
2013-11-27 21:35:00,33.2,24.1,30.12,West,276,5.0,5.0,69,0.00,,,0.00,0,WeatherCatV1.23B16,2013-11-28 03:35:00,
2013-11-27 21:36:00,33.1,23.7,30.11,West,276,2.0,5.0,68,0.00,,,0.00,0,WeatherCatV1.23B16,2013-11-28 03:36:00,
2013-11-27 21:38:00,33.0,23.6,30.12,West,276,0.0,4.0,68,0.00,,,0.00,0,WeatherCatV1.23B16,2013-11-28 03:38:00,
2013-11-27 21:40:00,32.8,23.4,30.12,West,276,2.0,3.0,68,0.00,,,0.00,0,WeatherCatV1.23B16,2013-11-28 03:40:00,
2013-11-27 21:41:00,32.6,23.6,30.12,West,276,2.0,5.0,69,0.00,,,0.00,0,WeatherCatV1.23B16,2013-11-28 03:41:00,
2013-11-27 21:43:00,32.5,23.5,30.12,West,276,0.0,3.0,69,0.00,,,0.00,0,WeatherCatV1.23B16,2013-11-28 03:43:00,
2013-11-27 21:45:00,32.2,23.2,30.12,West,276,0.0,3.0,69,0.00,,,0.00,0,WeatherCatV1.23B16,2013-11-28 03:45:00,
2013-11-27 21:46:00,32.1,23.1,30.12,West,276,1.0,3.0,69,0.00,,,0.00,0,WeatherCatV1.23B16,2013-11-28 03:46:00,
2013-11-27 21:47:00,32.1,23.1,30.12,West,276,3.0,3.0,69,0.00,,,0.00,0,WeatherCatV1.23B16,2013-11-28 03:47:00,
2013-11-27 21:48:00,32.0,23.3,30.12,West,276,0.0,4.0,70,0.00,,,0.00,0,WeatherCatV1.23B16,2013-11-28 03:48:00,
2013-11-27 21:50:00,31.8,23.1,30.12,West,276,1.0,2.0,70,0.00,,,0.00,0,WeatherCatV1.23B16,2013-11-28 03:50:00,
2013-11-27 21:51:00,31.7,23.0,30.12,West,276,1.0,2.0,70,0.00,,,0.00,0,WeatherCatV1.23B16,2013-11-28 03:51:00,
2013-11-27 21:52:00,31.7,23.0,30.12,West,276,0.0,2.0,70,0.00,,,0.00,0,WeatherCatV1.23B16,2013-11-28 03:52:00,
2013-11-27 21:53:00,31.6,23.0,30.12,West,276,0.0,2.0,70,0.00,,,0.00,0,WeatherCatV1.23B16,2013-11-28 03:53:00,
2013-11-27 21:55:00,31.5,23.2,30.12,West,276,0.0,3.0,71,0.00,,,0.00,0,WeatherCatV1.23B16,2013-11-28 03:55:00,
2013-11-27 21:56:00,31.5,23.2,30.12,West,276,0.0,3.0,71,0.00,,,0.00,0,WeatherCatV1.23B16,2013-11-28 03:56:00,
2013-11-27 21:57:00,31.4,23.1,30.12,West,276,1.0,2.0,71,0.00,,,0.00,0,WeatherCatV1.23B16,2013-11-28 03:57:00,
2013-11-27 21:58:00,31.4,23.1,30.13,West,276,3.0,3.0,71,0.00,,,0.00,0,WeatherCatV1.23B16,2013-11-28 03:58:00,
2013-11-27 22:00:00,31.2,22.9,30.13,West,276,4.0,4.0,71,0.00,,,0.00,0,WeatherCatV1.23B16,2013-11-28 04:00:00,
2013-11-27 22:02:00,31.2,23.2,30.13,West,276,2.0,4.0,72,0.00,,,0.00,0,WeatherCatV1.23B16,2013-11-28 04:02:00,
2013-11-27 22:03:00,31.2,23.2,30.13,West,276,4.0,4.0,72,0.00,,,0.00,0,WeatherCatV1.23B16,2013-11-28 04:03:00,
2013-11-27 22:04:00,31.2,23.2,30.13,West,276,0.0,4.0,72,0.00,,,0.00,0,WeatherCatV1.23B16,2013-11-28 04:04:00,
2013-11-27 22:06:00,31.1,23.1,30.13,West,276,1.0,3.0,72,0.00,,,0.00,0,WeatherCatV1.23B16,2013-11-28 04:06:00,
2013-11-27 22:07:00,31.1,23.1,30.13,West,276,0.0,3.0,72,0.00,,,0.00,0,WeatherCatV1.23B16,2013-11-28 04:07:00,
2013-11-27 22:08:00,31.1,23.1,30.13,West,276,0.0,2.0,72,0.00,,,0.00,0,WeatherCatV1.23B16,2013-11-28 04:08:00,
2013-11-27 22:09:00,31.1,23.1,30.13,West,276,0.0,2.0,72,0.00,,,0.00,0,WeatherCatV1.23B16,2013-11-28 04:09:00,
2013-11-27 22:10:00,31.1,23.1,30.13,West,276,0.0,0.0,72,0.00,,,0.00,0,WeatherCatV1.23B16,2013-11-28 04:10:00,
2013-11-27 22:11:00,31.0,23.0,30.13,West,276,0.0,0.0,72,0.00,,,0.00,0,WeatherCatV1.23B16,2013-11-28 04:11:00,
2013-11-27 22:12:00,31.0,23.4,30.13,West,276,3.0,4.0,73,0.00,,,0.00,0,WeatherCatV1.23B16,2013-11-28 04:12:00,
2013-11-27 22:13:00,31.0,23.4,30.13,West,276,2.0,4.0,73,0.00,,,0.00,0,WeatherCatV1.23B16,2013-11-28 04:13:00,
2013-11-27 22:14:00,31.1,23.5,30.13,West,276,2.0,4.0,73,0.00,,,0.00,0,WeatherCatV1.23B16,2013-11-28 04:14:00,
2013-11-27 22:15:00,31.1,23.5,30.13,West,276,4.0,4.0,73,0.00,,,0.00,0,WeatherCatV1.23B16,2013-11-28 04:15:00,
2013-11-27 22:16:00,31.2,23.6,30.13,West,264,5.0,6.0,73,0.00,,,0.00,0,WeatherCatV1.23B16,2013-11-28 04:16:00,
2013-11-27 22:17:00,31.3,23.7,30.13,West,267,3.0,6.0,73,0.00,,,0.00,0,WeatherCatV1.23B16,2013-11-28 04:17:00,
2013-11-27 22:18:00,31.3,23.7,30.13,West,267,3.0,5.0,73,0.00,,,0.00,0,WeatherCatV1.23B16,2013-11-28 04:18:00,
2013-11-27 22:19:00,31.4,23.8,30.13,West,267,3.0,4.0,73,0.00,,,0.00,0,WeatherCatV1.23B16,2013-11-28 04:19:00,
2013-11-27 22:21:00,31.5,23.9,30.14,West,265,0.0,6.0,73,0.00,,,0.00,0,WeatherCatV1.23B16,2013-11-28 04:21:00,
2013-11-27 22:22:00,31.5,23.9,30.13,West,265,1.0,5.0,73,0.00,,,0.00,0,WeatherCatV1.23B16,2013-11-28 04:22:00,
2013-11-27 22:23:00,31.5,23.9,30.14,West,265,0.0,5.0,73,0.00,,,0.00,0,WeatherCatV1.23B16,2013-11-28 04:23:00,
2013-11-27 22:24:00,31.5,23.9,30.13,West,265,0.0,2.0,73,0.00,,,0.00,0,WeatherCatV1.23B16,2013-11-28 04:24:00,
2013-11-27 22:25:00,31.5,23.9,30.14,West,265,2.0,2.0,73,0.00,,,0.00,0,WeatherCatV1.23B16,2013-11-28 04:25:00,
2013-11-27 22:26:00,31.5,23.9,30.13,West,265,3.0,4.0,73,0.00,,,0.00,0,WeatherCatV1.23B16,2013-11-28 04:26:00,
2013-11-27 22:28:00,31.4,23.8,30.14,West,265,2.0,3.0,73,0.00,,,0.00,0,WeatherCatV1.23B16,2013-11-28 04:28:00,
2013-11-27 22:30:00,31.3,23.7,30.13,West,265,2.0,3.0,73,0.00,,,0.00,0,WeatherCatV1.23B16,2013-11-28 04:30:00,
2013-11-27 22:31:00,31.2,23.6,30.13,West,265,0.0,2.0,73,0.00,,,0.00,0,WeatherCatV1.23B16,2013-11-28 04:31:00,
2013-11-27 22:33:00,31.1,23.5,30.14,West,265,0.0,2.0,73,0.00,,,0.00,0,WeatherCatV1.23B16,2013-11-28 04:33:00,
2013-11-27 22:35:00,31.1,23.5,30.14,West,265,0.0,2.0,73,0.00,,,0.00,0,WeatherCatV1.23B16,2013-11-28 04:35:00,
2013-11-27 22:36:00,31.0,23.4,30.14,West,265,1.0,3.0,73,0.00,,,0.00,0,WeatherCatV1.23B16,2013-11-28 04:36:00,
2013-11-27 22:38:00,30.9,23.3,30.14,West,265,0.0,0.0,73,0.00,,,0.00,0,WeatherCatV1.23B16,2013-11-28 04:38:00,
2013-11-27 22:39:00,30.9,23.3,30.14,West,265,0.0,0.0,73,0.00,,,0.00,0,WeatherCatV1.23B16,2013-11-28 04:39:00,
2013-11-27 22:40:00,30.8,23.2,30.14,West,265,0.0,0.0,73,0.00,,,0.00,0,WeatherCatV1.23B16,2013-11-28 04:40:00,
2013-11-27 22:41:00,30.7,23.1,30.14,West,265,0.0,0.0,73,0.00,,,0.00,0,WeatherCatV1.23B16,2013-11-28 04:41:00,
2013-11-27 22:43:00,30.4,23.1,30.14,West,265,1.0,1.0,74,0.00,,,0.00,0,WeatherCatV1.23B16,2013-11-28 04:43:00,
2013-11-27 22:44:00,30.4,23.1,30.14,West,265,0.0,1.0,74,0.00,,,0.00,0,WeatherCatV1.23B16,2013-11-28 04:44:00,
2013-11-27 22:45:00,30.2,22.9,30.14,West,265,0.0,1.0,74,0.00,,,0.00,0,WeatherCatV1.23B16,2013-11-28 04:45:00,
2013-11-27 22:46:00,30.1,22.8,30.14,West,265,0.0,0.0,74,0.00,,,0.00,0,WeatherCatV1.23B16,2013-11-28 04:46:00,
2013-11-27 22:47:00,30.1,23.1,30.14,West,265,0.0,0.0,75,0.00,,,0.00,0,WeatherCatV1.23B16,2013-11-28 04:47:00,
2013-11-27 22:48:00,30.0,23.0,30.14,West,265,0.0,0.0,75,0.00,,,0.00,0,WeatherCatV1.23B16,2013-11-28 04:48:00,
2013-11-27 22:49:00,29.9,23.0,30.14,West,265,0.0,0.0,75,0.00,,,0.00,0,WeatherCatV1.23B16,2013-11-28 04:49:00,
2013-11-27 22:50:00,29.8,22.9,30.14,West,265,2.0,3.0,75,0.00,,,0.00,0,WeatherCatV1.23B16,2013-11-28 04:50:00,
2013-11-27 22:51:00,29.8,22.9,30.13,West,265,2.0,3.0,75,0.00,,,0.00,0,WeatherCatV1.23B16,2013-11-28 04:51:00,
2013-11-27 22:52:00,29.8,22.9,30.13,West,265,1.0,3.0,75,0.00,,,0.00,0,WeatherCatV1.23B16,2013-11-28 04:52:00,
2013-11-27 22:53:00,29.7,22.8,30.14,West,265,0.0,2.0,75,0.00,,,0.00,0,WeatherCatV1.23B16,2013-11-28 04:53:00,
2013-11-27 22:54:00,29.7,22.8,30.14,West,265,0.0,0.0,75,0.00,,,0.00,0,WeatherCatV1.23B16,2013-11-28 04:54:00,
2013-11-27 22:55:00,29.6,23.0,30.14,West,265,0.0,0.0,76,0.00,,,0.00,0,WeatherCatV1.23B16,2013-11-28 04:55:00,
2013-11-27 22:57:00,29.6,23.0,30.14,West,265,0.0,0.0,76,0.00,,,0.00,0,WeatherCatV1.23B16,2013-11-28 04:57:00,
2013-11-27 22:58:00,29.4,22.8,30.14,West,265,0.0,0.0,76,0.00,,,0.00,0,WeatherCatV1.23B16,2013-11-28 04:58:00,
2013-11-27 22:59:00,29.4,22.8,30.14,West,265,0.0,0.0,76,0.00,,,0.00,0,WeatherCatV1.23B16,2013-11-28 04:59:00,
2013-11-27 23:01:00,29.2,22.6,30.14,West,265,0.0,0.0,76,0.00,,,0.00,0,WeatherCatV1.23B16,2013-11-28 05:01:00,
2013-11-27 23:06:00,28.8,22.5,30.15,West,265,0.0,0.0,77,0.00,,,0.00,0,WeatherCatV1.23B16,2013-11-28 05:06:00,
2013-11-27 23:11:00,28.7,22.4,30.15,West,265,0.0,0.0,77,0.00,,,0.00,0,WeatherCatV1.23B16,2013-11-28 05:11:00,
2013-11-27 23:16:00,28.7,22.7,30.15,West,265,0.0,0.0,78,0.00,,,0.00,0,WeatherCatV1.23B16,2013-11-28 05:16:00,
2013-11-27 23:17:00,28.7,22.7,30.15,West,265,0.0,0.0,78,0.00,,,0.00,0,WeatherCatV1.23B16,2013-11-28 05:17:00,
2013-11-27 23:21:00,28.8,22.8,30.15,West,265,0.0,0.0,78,0.00,,,0.00,0,WeatherCatV1.23B16,2013-11-28 05:21:00,
2013-11-27 23:22:00,28.8,22.8,30.15,West,265,0.0,0.0,78,0.00,,,0.00,0,WeatherCatV1.23B16,2013-11-28 05:22:00,
2013-11-27 23:26:00,28.9,22.9,30.16,West,265,1.0,2.0,78,0.00,,,0.00,0,WeatherCatV1.23B16,2013-11-28 05:26:00,
2013-11-27 23:27:00,28.9,22.9,30.16,West,265,2.0,3.0,78,0.00,,,0.00,0,WeatherCatV1.23B16,2013-11-28 05:27:00,
2013-11-27 23:31:00,29.4,23.4,30.16,West,265,2.0,4.0,78,0.00,,,0.00,0,WeatherCatV1.23B16,2013-11-28 05:31:00,
2013-11-27 23:32:00,29.4,23.4,30.16,West,265,2.0,3.0,78,0.00,,,0.00,0,WeatherCatV1.23B16,2013-11-28 05:32:00,
2013-11-27 23:33:00,29.6,23.6,30.15,West,265,2.0,3.0,78,0.00,,,0.00,0,WeatherCatV1.23B16,2013-11-28 05:33:00,
2013-11-27 23:37:00,30.1,24.1,30.16,West,266,2.0,3.0,78,0.00,,,0.00,0,WeatherCatV1.23B16,2013-11-28 05:37:00,
2013-11-27 23:38:00,30.2,23.9,30.16,West,266,2.0,4.0,77,0.00,,,0.00,0,WeatherCatV1.23B16,2013-11-28 05:38:00,
2013-11-27 23:39:00,30.3,24.0,30.16,West,266,1.0,4.0,77,0.00,,,0.00,0,WeatherCatV1.23B16,2013-11-28 05:39:00,
2013-11-27 23:42:00,30.9,24.5,30.16,WNW,294,3.0,4.0,77,0.00,,,0.00,0,WeatherCatV1.23B16,2013-11-28 05:42:00,
2013-11-27 23:43:00,31.0,24.3,30.16,WNW,294,3.0,4.0,76,0.00,,,0.00,0,WeatherCatV1.23B16,2013-11-28 05:43:00,
2013-11-27 23:44:00,31.2,24.5,30.16,WNW,294,1.0,4.0,76,0.00,,,0.00,0,WeatherCatV1.23B16,2013-11-28 05:44:00,
2013-11-27 23:47:00,31.6,24.6,30.16,WNW,294,1.0,6.0,75,0.00,,,0.00,0,WeatherCatV1.23B16,2013-11-28 05:47:00,
2013-11-27 23:48:00,31.7,24.7,30.16,WNW,294,3.0,3.0,75,0.00,,,0.00,0,WeatherCatV1.23B16,2013-11-28 05:48:00,
2013-11-27 23:49:00,31.8,24.8,30.16,WNW,294,1.0,3.0,75,0.00,,,0.00,0,WeatherCatV1.23B16,2013-11-28 05:49:00,
2013-11-27 23:52:00,32.0,24.7,30.16,WNW,294,2.0,3.0,74,0.00,,,0.00,0,WeatherCatV1.23B16,2013-11-28 05:52:00,
2013-11-27 23:53:00,32.1,24.8,30.16,WNW,294,0.0,2.0,74,0.00,,,0.00,0,WeatherCatV1.23B16,2013-11-28 05:53:00,
2013-11-27 23:54:00,32.1,24.4,30.16,WNW,294,0.0,1.0,73,0.00,,,0.00,0,WeatherCatV1.23B16,2013-11-28 05:54:00,
2013-11-27 23:55:00,32.1,24.4,30.16,WNW,294,0.0,2.0,73,0.00,,,0.00,0,WeatherCatV1.23B16,2013-11-28 05:55:00,
2013-11-27 23:57:00,32.1,24.4,30.16,WNW,294,0.0,0.0,73,0.00,,,0.00,0,WeatherCatV1.23B16,2013-11-28 05:57:00,
2013-11-27 23:58:00,32.1,24.4,30.16,WNW,294,1.0,3.0,73,0.00,,,0.00,0,WeatherCatV1.23B16,2013-11-28 05:58:00,
2013-11-27 23:59:00,32.1,24.4,30.16,WNW,294,0.0,0.0,73,0.00,,,0.00,0,WeatherCatV1.23B16,2013-11-28 05:59:00,